N4ASP-13 Weather Reports


time (UTC)temp
C
wind
direction
speed
KPH
gust
KPH
rain 1hr
cm
rain 24hr
cm
rain mn
cm
humidity
%
barometer
mb
20260903231335 30 168 0.0 0.0 0.00 0.00 0.00 67 1018.8
20260903231237 30 170 0.0 0.0 0.00 0.00 0.00 67 1018.8
20260903231136 30 170 0.0 0.0 0.00 0.00 0.00 67 1018.9
20260903231035 30 166 0.0 0.0 0.00 0.00 0.00 67 1018.8
20260903230933 30 166 0.0 0.0 0.00 0.00 0.00 67 1018.9
20260903230827 30 166 0.0 0.0 0.00 0.00 0.00 67 1018.9
20260903230725 30 166 0.0 0.0 0.00 0.00 0.00 67 1018.9
20260903230624 30 166 0.0 0.0 0.00 0.00 0.00 67 1018.8
20260903230525 30 166 0.0 0.0 0.00 0.00 0.00 66 1018.9
20260903230423 30 293 0.0 0.0 0.00 0.00 0.00 66 1018.8
20260903230317 30 293 0.0 0.0 0.00 0.00 0.00 66 1018.9
20260903230216 30 293 0.0 0.0 0.00 0.00 0.00 66 1018.9
20260903230116 30 293 0.0 0.0 0.00 0.00 0.00 66 1018.9
20260903230017 30 87 0.0 0.0 0.00 0.00 0.00 66 1018.8
20260903225917 30 87 0.0 0.0 0.00 0.00 0.00 65 1018.9
20260903225816 30 51 0.0 0.0 0.00 0.00 0.00 65 1018.9
20260903225715 30 72 0.0 0.0 0.00 0.00 0.00 66 1018.9
20260903225612 30 72 0.0 0.0 0.00 0.00 0.00 65 1019.0
20260903225513 30 74 0.0 0.0 0.00 0.00 0.00 65 1018.9
20260903225410 30 128 0.0 0.0 0.00 0.00 0.00 65 1019.0
20260903225302 30 132 0.0 0.0 0.00 0.00 0.00 65 1018.9
20260903225203 30 132 0.0 0.0 0.00 0.00 0.00 65 1018.9
20260903225100 30 132 0.0 0.0 0.00 0.00 0.00 65 1018.8
20260903225001 30 132 0.0 0.0 0.00 0.00 0.00 64 1018.8
20260903224858 30 132 0.0 0.0 0.00 0.00 0.00 64 1018.9
20260903224755 30 132 0.0 0.0 0.00 0.00 0.00 64 1018.9
20260903224652 30 132 0.0 0.0 0.00 0.00 0.00 65 1018.9
20260903224554 30 132 0.0 0.0 0.00 0.00 0.00 65 1018.8
20260903224453 30 132 0.0 0.0 0.00 0.00 0.00 65 1018.8
20260903224353 30 132 0.0 0.0 0.00 0.00 0.00 65 1018.9
20260903224249 30 132 0.0 0.0 0.00 0.00 0.00 65 1018.8
20260903224151 30 132 0.0 0.0 0.00 0.00 0.00 64 1018.8
20260903224047 30 132 0.0 0.0 0.00 0.00 0.00 64 1018.8
20260903223949 30 132 0.0 0.0 0.00 0.00 0.00 64 1018.7
20260903223847 30 132 0.0 0.0 0.00 0.00 0.00 64 1018.7
20260903223736 30 132 0.0 0.0 0.00 0.00 0.00 64 1018.7
20260903223636 30 132 0.0 0.0 0.00 0.00 0.00 64 1018.7
20260903223536 30 132 0.0 0.0 0.00 0.00 0.00 64 1018.8
20260903223435 30 132 0.0 0.0 0.00 0.00 0.00 64 1018.7
20260903223332 30 132 0.0 0.0 0.00 0.00 0.00 64 1018.8
20260903223232 30 132 0.0 0.0 0.00 0.00 0.00 64 1018.8
20260903223131 30 132 0.0 0.0 0.00 0.00 0.00 64 1018.8
20260903223030 30 132 0.0 0.0 0.00 0.00 0.00 64 1018.8
20260903222929 30 132 0.0 0.0 0.00 0.00 0.00 63 1018.8
20260903222827 31 132 0.0 0.0 0.00 0.00 0.00 65 1018.8
20260903222727 31 132 0.0 0.0 0.00 0.00 0.00 64 1018.8
20260903222625 31 132 0.0 0.0 0.00 0.00 0.00 63 1018.8
20260903222522 31 132 0.0 0.0 0.00 0.00 0.00 64 1018.7
20260903222424 31 132 0.0 0.0 0.00 0.00 0.00 64 1018.9
20260903222320 31 132 0.0 0.0 0.00 0.00 0.00 65 1018.8
20260903222205 31 132 0.0 0.0 0.00 0.00 0.00 65 1018.8
20260903222107 31 132 0.0 0.0 0.00 0.00 0.00 64 1018.8
20260903222006 31 132 0.0 0.0 0.00 0.00 0.00 64 1018.8
20260903221907 31 132 0.0 0.0 0.00 0.00 0.00 64 1018.7
20260903221806 31 132 0.0 0.0 0.00 0.00 0.00 64 1018.8
20260903221701 31 132 0.0 0.0 0.00 0.00 0.00 64 1018.8
20260903221602 31 132 0.0 0.0 0.00 0.00 0.00 63 1018.9
20260903221503 31 132 0.0 0.0 0.00 0.00 0.00 63 1018.8
20260903221403 31 132 0.0 0.0 0.00 0.00 0.00 63 1018.8
20260903221301 31 132 0.0 0.0 0.00 0.00 0.00 63 1018.8
20260903221201 31 132 0.0 0.0 0.00 0.00 0.00 63 1018.8
20260903221058 31 132 0.0 0.0 0.00 0.00 0.00 63 1018.8
20260903220958 31 132 0.0 0.0 0.00 0.00 0.00 63 1018.8
20260903220857 31 132 0.0 0.0 0.00 0.00 0.00 62 1018.8
20260903220754 31 132 0.0 0.0 0.00 0.00 0.00 63 1018.8
20260903220644 31 132 0.0 0.0 0.00 0.00 0.00 62 1018.8
20260903220545 31 132 0.0 0.0 0.00 0.00 0.00 62 1018.8
20260903220444 31 132 0.0 0.0 0.00 0.00 0.00 62 1018.7
20260903220343 31 132 0.0 0.0 0.00 0.00 0.00 62 1018.8
20260903220241 31 132 0.0 0.0 0.00 0.00 0.00 63 1018.8
20260903220137 31 132 0.0 0.0 0.00 0.00 0.00 63 1018.8
20260903220035 31 132 0.0 0.0 0.00 0.00 0.00 63 1018.8
20260903215934 31 132 0.0 0.0 0.00 0.00 0.00 62 1018.9
20260903215834 31 132 0.0 0.0 0.00 0.00 0.00 62 1018.8
20260903215734 31 132 0.0 0.0 0.00 0.00 0.00 62 1018.8
20260903215631 31 132 0.0 0.0 0.00 0.00 0.00 63 1018.9
20260903215532 31 132 0.0 0.0 0.00 0.00 0.00 63 1018.9
20260903215431 31 132 0.0 0.0 0.00 0.00 0.00 62 1018.8
20260903215330 31 132 0.0 0.0 0.00 0.00 0.00 62 1018.9
20260903215228 31 132 0.0 0.0 0.00 0.00 0.00 63 1018.9
20260903215121 31 132 0.0 0.0 0.00 0.00 0.00 62 1018.8
20260903215022 31 132 0.0 0.0 0.00 0.00 0.00 63 1018.9
20260903214923 31 132 0.0 0.0 0.00 0.00 0.00 63 1018.9
20260903214820 31 132 0.0 0.0 0.00 0.00 0.00 62 1018.9
20260903214719 31 132 0.0 0.0 0.00 0.00 0.00 63 1018.8
20260903214618 31 132 0.0 0.0 0.00 0.00 0.00 65 1018.8
20260903214516 31 132 0.0 0.0 0.00 0.00 0.00 65 1018.9
20260903214416 31 132 0.0 0.0 0.00 0.00 0.00 65 1018.8
20260903214315 31 132 0.0 0.0 0.00 0.00 0.00 64 1018.9
20260903214213 31 132 0.0 0.0 0.00 0.00 0.00 65 1018.9
20260903214105 31 132 0.0 0.0 0.00 0.00 0.00 66 1018.9
20260903214006 31 132 0.0 0.0 0.00 0.00 0.00 64 1018.9
20260903213907 31 132 0.0 0.0 0.00 0.00 0.00 65 1018.9
20260903213807 31 132 0.0 0.0 0.00 0.00 0.00 65 1018.9
20260903213706 31 132 0.0 0.0 0.00 0.00 0.00 64 1019.0
20260903213559 31 132 0.0 0.0 0.00 0.00 0.00 64 1019.0
20260903213457 31 132 0.0 0.0 0.00 0.00 0.00 64 1019.0
20260903213356 31 132 0.0 0.0 0.00 0.00 0.00 64 1019.0
20260903213256 31 132 0.0 0.0 0.00 0.00 0.00 65 1019.0
20260903213157 31 132 0.0 0.0 0.00 0.00 0.00 65 1019.0
20260903213052 31 132 0.0 0.0 0.00 0.00 0.00 64 1019.0
20260903212951 31 132 0.0 0.0 0.00 0.00 0.00 64 1019.0
20260903212852 31 132 0.0 0.0 0.00 0.00 0.00 64 1019.0
20260903212753 31 132 0.0 0.0 0.00 0.00 0.00 63 1019.0
20260903212651 31 132 0.0 0.0 0.00 0.00 0.00 64 1019.0
20260903212545 31 132 0.0 0.0 0.00 0.00 0.00 64 1019.0
20260903212447 31 123 0.0 0.0 0.00 0.00 0.00 66 1019.0
20260903212346 31 121 0.0 0.0 0.00 0.00 0.00 67 1019.1
20260903212247 31 121 0.0 0.0 0.00 0.00 0.00 67 1019.0
20260903212145 31 121 0.0 0.0 0.00 0.00 0.00 66 1019.0
20260903212039 31 121 0.0 0.0 0.00 0.00 0.00 67 1019.1
20260903211939 31 121 0.0 0.0 0.00 0.00 0.00 66 1019.0
20260903211839 31 121 0.0 0.0 0.00 0.00 0.00 66 1019.1
20260903211736 31 121 0.0 0.0 0.00 0.00 0.00 66 1019.0
20260903211634 31 121 0.0 0.0 0.00 0.00 0.00 66 1019.0
20260903211535 31 121 0.0 0.0 0.00 0.00 0.00 65 1019.0
20260903211432 31 122 0.0 0.0 0.00 0.00 0.00 65 1019.1
20260903211333 31 126 0.0 0.0 0.00 0.00 0.00 66 1019.1
20260903211230 31 126 0.0 0.0 0.00 0.00 0.00 67 1019.1
20260903211129 31 126 0.0 0.0 0.00 0.00 0.00 66 1019.1
20260903211025 31 126 0.0 0.0 0.00 0.00 0.00 64 1019.1
20260903210923 31 126 0.0 0.0 0.00 0.00 0.00 66 1019.1
20260903210824 31 126 0.0 0.0 0.00 0.00 0.00 67 1019.1
20260903210725 31 126 0.0 0.0 0.00 0.00 0.00 66 1019.2
20260903210623 31 126 0.0 0.0 0.00 0.00 0.00 68 1019.1
20260903210513 31 126 0.0 0.0 0.00 0.00 0.00 67 1019.2
20260903210412 31 126 0.0 0.0 0.00 0.00 0.00 65 1019.2
20260903210314 31 126 0.0 0.0 0.00 0.00 0.00 67 1019.2
20260903210213 31 126 0.0 0.0 0.00 0.00 0.00 65 1019.2
20260903210112 31 126 0.0 0.0 0.00 0.00 0.00 67 1019.3
20260903210009 31 126 0.0 0.0 0.00 0.00 0.00 67 1019.3
20260903205907 31 126 0.0 0.0 0.00 0.00 0.00 66 1019.3
20260903205805 31 126 0.0 0.0 0.00 0.00 0.00 66 1019.2
20260903205707 31 126 0.0 0.0 0.00 0.00 0.00 66 1019.2
20260903205606 31 126 0.0 0.0 0.00 0.00 0.00 69 1019.3
20260903205502 31 126 0.0 0.0 0.00 0.00 0.00 66 1019.3
20260903205403 31 126 0.0 0.0 0.00 0.00 0.00 66 1019.3
20260903205306 31 126 0.0 0.0 0.00 0.00 0.00 65 1019.4
20260903205203 31 126 0.0 0.0 0.00 0.00 0.00 65 1019.4
20260903205101 31 126 0.0 0.0 0.00 0.00 0.00 65 1019.3
20260903204957 31 126 0.0 0.0 0.00 0.00 0.00 64 1019.4
20260903204855 31 126 0.0 0.0 0.00 0.00 0.00 63 1019.4
20260903204755 31 125 0.0 0.0 0.00 0.00 0.00 63 1019.4
20260903204653 31 125 0.0 0.0 0.00 0.00 0.00 64 1019.4
20260903204551 31 124 0.0 0.0 0.00 0.00 0.00 63 1019.5
20260903204450 31 124 0.0 0.0 0.00 0.00 0.00 64 1019.4
20260903204348 31 123 0.0 0.0 0.00 0.00 0.00 63 1019.4
20260903204249 31 123 0.0 0.0 0.00 0.00 0.00 62 1019.4
20260903204146 31 123 0.0 0.0 0.00 0.00 0.00 61 1019.4
20260903204044 31 111 0.0 0.0 0.00 0.00 0.00 61 1019.4
20260903203945 31 107 0.0 0.0 0.00 0.00 0.00 62 1019.4
20260903203842 32 107 0.0 0.0 0.00 0.00 0.00 61 1019.4
20260903203742 32 107 0.0 0.0 0.00 0.00 0.00 62 1019.3
20260903203641 32 107 0.0 0.0 0.00 0.00 0.00 62 1019.4
20260903203539 32 106 0.0 0.0 0.00 0.00 0.00 61 1019.3
20260903203429 32 107 0.0 0.0 0.00 0.00 0.00 60 1019.3
20260903203328 32 106 0.0 0.0 0.00 0.00 0.00 61 1019.4
20260903203228 32 106 0.0 0.0 0.00 0.00 0.00 61 1019.4
20260903203129 32 106 0.0 0.0 0.00 0.00 0.00 61 1019.4
20260903203029 32 106 0.0 0.0 0.00 0.00 0.00 60 1019.4
20260903202929 32 106 0.0 0.0 0.00 0.00 0.00 59 1019.4
20260903202827 32 106 0.0 0.0 0.00 0.00 0.00 58 1019.5
20260903202727 32 106 0.0 0.0 0.00 0.00 0.00 59 1019.4
20260903202625 32 106 0.0 0.0 0.00 0.00 0.00 58 1019.5
20260903202523 32 105 0.0 0.0 0.00 0.00 0.00 58 1019.5
20260903202418 32 105 0.0 0.0 0.00 0.00 0.00 57 1019.6
20260903202315 32 105 0.0 0.0 0.00 0.00 0.00 56 1019.5
20260903202216 32 105 0.0 0.0 0.00 0.00 0.00 58 1019.4
20260903202117 32 105 0.0 0.0 0.00 0.00 0.00 56 1019.5
20260903202017 32 105 0.0 0.0 0.00 0.00 0.00 58 1019.4
20260903201917 32 121 0.0 0.0 0.00 0.00 0.00 58 1019.5
20260903201814 32 135 0.0 0.0 0.00 0.00 0.00 56 1019.5
20260903201715 32 135 0.0 0.0 0.00 0.00 0.00 57 1019.4
20260903201613 32 135 0.0 0.0 0.00 0.00 0.00 56 1019.4
20260903201513 32 135 0.0 0.0 0.00 0.00 0.00 56 1019.5
20260903201410 32 96 0.0 0.0 0.00 0.00 0.00 57 1019.5
20260903201308 32 96 0.0 0.0 0.00 0.00 0.00 58 1019.5
20260903201209 32 98 0.0 0.0 0.00 0.00 0.00 59 1019.5
20260903201108 32 130 0.0 0.0 0.00 0.00 0.00 56 1019.5
20260903201007 32 133 0.0 0.0 0.00 0.00 0.00 56 1019.5
20260903200908 32 132 0.0 0.0 0.00 0.00 0.00 58 1019.7
20260903200809 32 132 0.0 0.0 0.00 0.00 0.00 58 1019.6
20260903200708 32 112 0.0 0.0 0.00 0.00 0.00 59 1019.6
20260903200609 32 117 0.0 0.0 0.00 0.00 0.00 59 1019.6
20260903200507 32 123 0.0 0.0 0.00 0.00 0.00 59 1019.6
20260903200408 32 119 0.0 0.0 0.00 0.00 0.00 59 1019.7
20260903200309 32 119 0.0 0.0 0.00 0.00 0.00 58 1019.7
20260903200208 32 121 0.0 0.0 0.00 0.00 0.00 58 1019.7
20260903200107 32 92 0.0 0.0 0.00 0.00 0.00 59 1019.7
20260903200005 32 119 0.0 0.0 0.00 0.00 0.00 58 1019.6
20260903195905 32 120 0.0 0.0 0.00 0.00 0.00 57 1019.6
20260903195806 32 120 0.0 0.0 0.00 0.00 0.00 59 1019.8
20260903195706 32 66 0.0 0.0 0.00 0.00 0.00 58 1019.7
20260903195604 32 66 0.0 0.0 0.00 0.00 0.00 56 1019.7
20260903195504 32 66 0.0 0.0 0.00 0.00 0.00 55 1019.8
20260903195405 32 66 0.0 0.0 0.00 0.00 0.00 55 1019.8
20260903195306 32 66 0.0 0.0 0.00 0.00 0.00 56 1019.8
20260903195203 32 67 0.0 0.0 0.00 0.00 0.00 56 1019.8
20260903195104 32 67 0.0 0.0 0.00 0.00 0.00 58 1019.7
20260903195005 32 69 0.0 0.0 0.00 0.00 0.00 59 1019.9
20260903194903 32 69 0.0 0.0 0.00 0.00 0.00 57 1019.7
20260903194804 32 69 0.0 0.0 0.00 0.00 0.00 56 1019.8
20260903194705 32 69 0.0 0.0 0.00 0.00 0.00 55 1019.8
20260903194604 32 69 0.0 0.0 0.00 0.00 0.00 57 1019.8
20260903194503 32 69 0.0 0.0 0.00 0.00 0.00 58 1019.8
20260903194403 32 69 0.0 0.0 0.00 0.00 0.00 58 1019.8
20260903194305 32 69 0.0 0.0 0.00 0.00 0.00 58 1019.9
20260903194203 32 69 0.0 0.0 0.00 0.00 0.00 56 1019.9
20260903194104 32 69 0.0 0.0 0.00 0.00 0.00 57 1019.9
20260903194005 32 69 0.0 0.0 0.00 0.00 0.00 56 1019.9
20260903193904 32 69 0.0 0.0 0.00 0.00 0.00 56 1019.9
20260903193805 32 69 0.0 0.0 0.00 0.00 0.00 56 1019.9
20260903193702 32 69 0.0 0.0 0.00 0.00 0.00 58 1019.9
20260903193601 32 69 0.0 0.0 0.00 0.00 0.00 58 1019.9
20260903193502 32 70 0.0 0.0 0.00 0.00 0.00 58 1019.9
20260903193403 32 70 0.0 0.0 0.00 0.00 0.00 59 1019.9
20260903193256 32 70 0.0 0.0 0.00 0.00 0.00 59 1020.0
20260903193155 32 70 0.0 0.0 0.00 0.00 0.00 60 1020.0
20260903193056 32 69 0.0 0.0 0.00 0.00 0.00 58 1019.9
20260903192956 32 69 0.0 0.0 0.00 0.00 0.00 57 1019.9
20260903192857 32 69 0.0 0.0 0.00 0.00 0.00 57 1020.0
20260903192753 32 68 0.0 0.0 0.00 0.00 0.00 61 1020.0
20260903192651 32 68 0.0 0.0 0.00 0.00 0.00 58 1020.2
20260903192551 32 121 0.0 0.0 0.00 0.00 0.00 60 1020.0
20260903192450 32 123 0.0 0.0 0.00 0.00 0.00 58 1020.0
20260903192351 32 86 0.0 0.0 0.00 0.00 0.00 58 1020.2
20260903192249 32 84 0.0 0.0 0.00 0.00 0.00 57 1020.0
20260903192148 32 84 0.0 0.0 0.00 0.00 0.00 57 1020.0
20260903192047 32 84 0.0 0.0 0.00 0.00 0.00 56 1020.0
20260903191949 32 84 0.0 0.0 0.00 0.00 0.00 56 1020.0
20260903191847 32 84 0.0 0.0 0.00 0.00 0.00 59 1020.2
20260903191748 32 84 0.0 0.0 0.00 0.00 0.00 56 1020.2
20260903191648 32 84 0.0 0.0 0.00 0.00 0.00 59 1020.2
20260903191548 32 84 0.0 0.0 0.00 0.00 0.00 58 1020.3
20260903191447 32 85 0.0 0.0 0.00 0.00 0.00 63 1020.2
20260903191347 32 127 0.0 0.0 0.00 0.00 0.00 61 1020.2
20260903191247 31 97 0.0 0.0 0.00 0.00 0.00 61 1020.2
20260903191149 31 93 0.0 0.0 0.00 0.00 0.00 59 1020.3
20260903191048 31 93 0.0 0.0 0.00 0.00 0.00 58 1020.2
20260903190946 31 93 0.0 0.0 0.00 0.00 0.00 58 1020.3
20260903190846 31 96 0.0 0.0 0.00 0.00 0.00 58 1020.2
20260903190744 31 96 0.0 0.0 0.00 0.00 0.00 61 1020.2
20260903190643 31 94 0.0 0.0 0.00 0.00 0.00 58 1020.3
20260903190543 31 93 0.0 0.0 0.00 0.00 0.00 59 1020.2
20260903190441 31 47 0.0 0.0 0.00 0.00 0.00 60 1020.2
20260903190341 31 48 0.0 0.0 0.00 0.00 0.00 60 1020.3
20260903190241 31 47 0.0 0.0 0.00 0.00 0.00 61 1020.3
20260903190139 31 98 0.0 0.0 0.00 0.00 0.00 62 1020.3
20260903190039 31 99 0.0 0.0 0.00 0.00 0.00 61 1020.3
20260903185936 31 99 0.0 0.0 0.00 0.00 0.00 60 1020.2
20260903185835 31 99 0.0 0.0 0.00 0.00 0.00 60 1020.3
20260903185735 31 139 0.0 0.0 0.00 0.00 0.00 60 1020.2
20260903185632 31 121 0.0 0.0 0.00 0.00 0.00 62 1020.3
20260903185532 31 97 0.0 0.0 0.00 0.00 0.00 61 1020.3
20260903185433 31 79 0.0 0.0 0.00 0.00 0.00 59 1020.3
20260903185332 31 81 0.0 0.0 0.00 0.00 0.00 64 1020.3
20260903185233 31 108 0.0 0.0 0.00 0.00 0.00 63 1020.3
20260903185132 31 113 0.0 0.0 0.00 0.00 0.00 64 1020.3
20260903185029 31 109 0.0 0.0 0.00 0.00 0.00 63 1020.4
20260903184930 31 28 0.0 0.0 0.00 0.00 0.00 65 1020.4
20260903184824 31 67 0.0 0.0 0.00 0.00 0.00 63 1020.4
20260903184724 31 336 0.0 0.0 0.00 0.00 0.00 62 1020.4
20260903184624 31 334 0.0 0.0 0.00 0.00 0.00 62 1020.4
20260903184524 31 343 0.0 0.0 0.00 0.00 0.00 64 1020.4
20260903184425 31 338 0.0 0.0 0.00 0.00 0.00 63 1020.4
20260903184325 31 338 0.0 0.0 0.00 0.00 0.00 63 1020.5
20260903184223 31 324 0.0 0.0 0.00 0.00 0.00 62 1020.5
20260903184122 31 325 0.0 0.0 0.00 0.00 0.00 62 1020.6
20260903184022 31 325 0.0 0.0 0.00 0.00 0.00 64 1020.6
20260903183922 31 308 0.0 0.0 0.00 0.00 0.00 63 1020.6
20260903183822 31 305 0.0 0.0 0.00 0.00 0.00 61 1020.6
20260903183722 31 305 0.0 0.0 0.00 0.00 0.00 60 1020.6
20260903183622 31 305 0.0 0.0 0.00 0.00 0.00 60 1020.5
20260903183521 31 312 0.0 0.0 0.00 0.00 0.00 62 1020.6
20260903183422 31 313 0.0 0.0 0.00 0.00 0.00 63 1020.6
20260903183322 31 342 0.0 0.0 0.00 0.00 0.00 60 1020.6
20260903183221 31 342 0.0 0.0 0.00 0.00 0.00 63 1020.7
20260903183121 31 355 0.0 0.0 0.00 0.00 0.00 63 1020.6
20260903183023 31 5 0.0 0.0 0.00 0.00 0.00 62 1020.6
20260903182917 31 5 0.0 0.0 0.00 0.00 0.00 63 1020.7
20260903182818 31 5 0.0 0.0 0.00 0.00 0.00 65 1020.7
20260903182717 31 9 0.0 0.0 0.00 0.00 0.00 62 1020.7
20260903182617 31 10 0.0 0.0 0.00 0.00 0.00 62 1020.7
20260903182519 31 25 0.0 0.0 0.00 0.00 0.00 60 1020.8
20260903182419 31 24 0.0 0.0 0.00 0.00 0.00 63 1020.7
20260903182318 31 30 0.0 0.0 0.00 0.00 0.00 60 1020.7
20260903182217 31 18 0.0 0.0 0.00 0.00 0.00 62 1020.7
20260903182119 31 350 0.0 0.0 0.00 0.00 0.00 63 1020.6
20260903182018 31 350 0.0 3.2 0.00 0.00 0.00 62 1020.7
20260903181918 31 350 0.0 4.8 0.00 0.00 0.00 62 1020.7
20260903181818 31 350 0.0 4.8 0.00 0.00 0.00 61 1020.6
20260903181718 31 350 0.0 4.8 0.00 0.00 0.00 63 1020.7
20260903181618 31 295 0.0 4.8 0.00 0.00 0.00 64 1020.7
20260903181519 31 295 0.0 6.4 0.00 0.00 0.00 65 1020.7
20260903181417 31 335 0.0 6.4 0.00 0.00 0.00 63 1020.7
20260903181319 31 335 0.0 6.4 0.00 0.00 0.00 64 1020.7
20260903181218 31 335 0.0 6.4 0.00 0.00 0.00 62 1020.7
20260903181118 31 335 0.0 6.4 0.00 0.00 0.00 62 1020.8
20260903181018 31 355 0.0 6.4 0.00 0.00 0.00 62 1020.8
20260903180918 31 5 0.0 6.4 0.00 0.00 0.00 62 1020.7
20260903180818 31 36 0.0 6.4 0.00 0.00 0.00 62 1020.8
20260903180717 31 36 0.0 6.4 0.00 0.00 0.00 61 1020.8
20260903180618 31 33 0.0 6.4 0.00 0.00 0.00 64 1020.9
20260903180518 31 28 0.0 0.0 0.00 0.00 0.00 64 1020.8
20260903180419 31 50 0.0 0.0 0.00 0.00 0.00 64 1020.8
20260903180309 31 331 0.0 0.0 0.00 0.00 0.00 63 1020.8
20260903180210 31 331 0.0 0.0 0.00 0.00 0.00 64 1020.9
20260903180110 31 329 0.0 4.8 0.00 0.00 0.00 62 1020.9
20260903180011 31 342 0.0 4.8 0.00 0.00 0.00 63 1020.9
20260903175909 31 5 0.0 9.7 0.00 0.00 0.00 64 1020.9
20260903175809 31 49 0.0 9.7 0.00 0.00 0.00 63 1020.9
20260903175711 31 35 0.0 9.7 0.00 0.00 0.00 62 1021.0
20260903175609 31 30 0.0 9.7 0.00 0.00 0.00 61 1021.0
20260903175510 31 27 0.0 9.7 0.00 0.00 0.00 61 1021.0
20260903175410 31 25 0.0 9.7 0.00 0.00 0.00 62 1021.0
20260903175310 31 5 0.0 9.7 0.00 0.00 0.00 59 1021.0
20260903175209 31 0 0.0 9.7 0.00 0.00 0.00 61 1021.0
20260903175111 31 350 0.0 9.7 0.00 0.00 0.00 61 1021.1
20260903175009 31 355 0.0 9.7 0.00 0.00 0.00 62 1021.1
20260903174910 31 38 0.0 4.8 0.00 0.00 0.00 63 1021.0
20260903174811 31 338 0.0 4.8 0.00 0.00 0.00 61 1021.1
20260903174711 31 338 0.0 4.8 0.00 0.00 0.00 61 1021.1
20260903174610 31 348 0.0 4.8 0.00 0.00 0.00 61 1021.1
20260903174509 31 5 0.0 4.8 0.00 0.00 0.00 62 1021.0
20260903174411 31 5 0.0 4.8 0.00 0.00 0.00 63 1021.1
20260903174310 31 19 0.0 4.8 0.00 0.00 0.00 62 1021.1
20260903174210 31 327 0.0 0.0 0.00 0.00 0.00 63 1021.0
20260903174109 31 355 0.0 0.0 0.00 0.00 0.00 62 1021.0
20260903174011 31 0 0.0 0.0 0.00 0.00 0.00 61 1021.1
20260903173910 31 343 0.0 0.0 0.00 0.00 0.00 62 1021.1
20260903173811 31 338 0.0 0.0 0.00 0.00 0.00 59 1021.1
20260903173710 31 5 0.0 0.0 0.00 0.00 0.00 63 1021.1
20260903173611 31 5 0.0 4.8 0.00 0.00 0.00 63 1021.1
20260903173510 31 5 0.0 4.8 0.00 0.00 0.00 62 1021.2
20260903173409 31 5 0.0 4.8 0.00 0.00 0.00 65 1021.2
20260903173310 31 5 0.0 4.8 0.00 0.00 0.00 62 1021.2
20260903173210 31 5 0.0 6.4 0.00 0.00 0.00 63 1021.2
20260903173110 31 16 0.0 6.4 0.00 0.00 0.00 64 1021.2
20260903173007 31 35 0.0 6.4 0.00 0.00 0.00 62 1021.2
20260903172905 31 123 0.0 6.4 0.00 0.00 0.00 64 1021.2
20260903172805 31 123 0.0 6.4 0.00 0.00 0.00 62 1021.3
20260903172706 31 123 0.0 6.4 0.00 0.00 0.00 64 1021.2
20260903172606 31 124 0.0 6.4 0.00 0.00 0.00 63 1021.3
20260903172505 31 127 0.0 6.4 0.00 0.00 0.00 65 1021.3
20260903172406 31 138 0.0 6.4 0.00 0.00 0.00 63 1021.2
20260903172306 31 140 1.6 11.3 0.00 0.00 0.00 63 1021.3
20260903172206 31 151 1.6 11.3 0.00 0.00 0.00 63 1021.3
20260903172106 31 155 1.6 11.3 0.00 0.00 0.00 64 1021.3
20260903172007 31 92 1.6 11.3 0.00 0.00 0.00 64 1021.3
20260903171905 31 92 1.6 11.3 0.00 0.00 0.00 63 1021.3
20260903171806 31 92 3.2 11.3 0.00 0.00 0.00 64 1021.3
20260903171707 31 108 3.2 11.3 0.00 0.00 0.00 63 1021.3
20260903171605 31 108 3.2 11.3 0.00 0.00 0.00 64 1021.3
20260903171506 31 101 1.6 11.3 0.00 0.00 0.00 65 1021.4
20260903171405 31 89 3.2 11.3 0.00 0.00 0.00 65 1021.3
20260903171306 31 101 1.6 11.3 0.00 0.00 0.00 66 1021.3
20260903171205 31 51 1.6 11.3 0.00 0.00 0.00 64 1021.3
20260903171106 31 54 1.6 11.3 0.00 0.00 0.00 64 1021.3
20260903171005 31 63 1.6 11.3 0.00 0.00 0.00 65 1021.4
20260903170906 31 59 1.6 11.3 0.00 0.00 0.00 64 1021.4
20260903170807 31 32 1.6 11.3 0.00 0.00 0.00 68 1021.4
20260903170705 31 32 1.6 11.3 0.00 0.00 0.00 65 1021.3
20260903170605 31 62 1.6 11.3 0.00 0.00 0.00 64 1021.4
20260903170507 31 346 1.6 11.3 0.00 0.00 0.00 64 1021.4
20260903170406 31 5 1.6 11.3 0.00 0.00 0.00 64 1021.4
20260903170305 31 50 1.6 6.4 0.00 0.00 0.00 63 1021.4
20260903170205 31 50 1.6 11.3 0.00 0.00 0.00 64 1021.5
20260903170106 31 68 1.6 11.3 0.00 0.00 0.00 63 1021.4
20260903170006 31 61 3.2 12.9 0.00 0.00 0.00 68 1021.4
20260903165905 31 41 3.2 12.9 0.00 0.00 0.00 67 1021.4
20260903165807 31 38 3.2 12.9 0.00 0.00 0.00 65 1021.4
20260903165701 31 61 3.2 12.9 0.00 0.00 0.00 63 1021.5
20260903165602 31 61 3.2 12.9 0.00 0.00 0.00 64 1021.4
20260903165501 31 61 4.8 12.9 0.00 0.00 0.00 62 1021.5
20260903165401 31 61 4.8 12.9 0.00 0.00 0.00 64 1021.5
20260903165305 31 61 4.8 12.9 0.00 0.00 0.00 64 1021.5
20260903165201 31 90 4.8 12.9 0.00 0.00 0.00 64 1021.6
20260903165101 31 71 4.8 12.9 0.00 0.00 0.00 65 1021.5
20260903165002 31 92 4.8 14.5 0.00 0.00 0.00 66 1021.5
20260903164902 31 315 4.8 14.5 0.00 0.00 0.00 63 1021.5
20260903164803 31 51 4.8 14.5 0.00 0.00 0.00 63 1021.6
20260903164702 31 49 4.8 14.5 0.00 0.00 0.00 63 1021.5
20260903164601 31 109 4.8 14.5 0.00 0.00 0.00 63 1021.6
20260903164502 31 109 4.8 14.5 0.00 0.00 0.00 65 1021.6
20260903164403 31 102 4.8 14.5 0.00 0.00 0.00 65 1021.6
20260903164301 31 103 4.8 14.5 0.00 0.00 0.00 64 1021.6
20260903164201 31 115 4.8 14.5 0.00 0.00 0.00 64 1021.6
20260903164102 31 91 4.8 14.5 0.00 0.00 0.00 65 1021.6
20260903164003 31 107 4.8 11.3 0.00 0.00 0.00 65 1021.6
20260903163902 31 104 4.8 11.3 0.00 0.00 0.00 64 1021.6
20260903163801 31 144 4.8 9.7 0.00 0.00 0.00 65 1021.6
20260903163701 31 134 4.8 11.3 0.00 0.00 0.00 65 1021.5
20260903163604 31 36 6.4 12.9 0.00 0.00 0.00 65 1021.5
20260903163502 31 36 6.4 12.9 0.00 0.00 0.00 66 1021.6
20260903163401 31 63 6.4 12.9 0.00 0.00 0.00 63 1021.5
20260903163302 31 65 6.4 12.9 0.00 0.00 0.00 62 1021.5
20260903163203 31 52 6.4 12.9 0.00 0.00 0.00 65 1021.5
20260903163102 31 59 6.4 12.9 0.00 0.00 0.00 63 1021.5
20260903163002 31 61 6.4 12.9 0.00 0.00 0.00 62 1021.5
20260903162901 31 56 6.4 12.9 0.00 0.00 0.00 63 1021.6
20260903162802 31 86 6.4 12.9 0.00 0.00 0.00 64 1021.5
20260903162701 31 97 4.8 12.9 0.00 0.00 0.00 62 1021.5
20260903162602 31 90 4.8 12.9 0.00 0.00 0.00 63 1021.5
20260903162503 31 94 4.8 12.9 0.00 0.00 0.00 65 1021.6
20260903162355 31 79 4.8 12.9 0.00 0.00 0.00 65 1021.6
20260903162256 31 74 3.2 12.9 0.00 0.00 0.00 64 1021.6
20260903162157 31 21 3.2 11.3 0.00 0.00 0.00 66 1021.6
20260903162057 31 18 4.8 11.3 0.00 0.00 0.00 68 1021.6
20260903161955 31 18 4.8 11.3 0.00 0.00 0.00 66 1021.6
20260903161851 31 17 4.8 11.3 0.00 0.00 0.00 65 1021.6
20260903161753 31 78 4.8 11.3 0.00 0.00 0.00 65 1021.6
20260903161651 31 79 4.8 11.3 0.00 0.00 0.00 66 1021.6
20260903161553 31 136 4.8 11.3 0.00 0.00 0.00 65 1021.6
20260903161450 31 126 4.8 11.3 0.00 0.00 0.00 65 1021.6
20260903161343 31 117 4.8 11.3 0.00 0.00 0.00 64 1021.7
20260903161241 31 126 4.8 11.3 0.00 0.00 0.00 64 1021.6
20260903161142 31 126 4.8 12.9 0.00 0.00 0.00 66 1021.7
20260903161039 31 121 4.8 12.9 0.00 0.00 0.00 64 1021.7
20260903160938 31 146 4.8 12.9 0.00 0.00 0.00 65 1021.7
20260903160833 31 146 4.8 12.9 0.00 0.00 0.00 65 1021.7
20260903160733 31 99 4.8 12.9 0.00 0.00 0.00 65 1021.7
20260903160632 31 98 4.8 12.9 0.00 0.00 0.00 65 1021.7
20260903160532 31 97 4.8 12.9 0.00 0.00 0.00 64 1021.6
20260903160430 31 97 3.2 12.9 0.00 0.00 0.00 63 1021.6
20260903160325 31 92 3.2 12.9 0.00 0.00 0.00 64 1021.6
20260903160225 31 98 3.2 12.9 0.00 0.00 0.00 66 1021.6
20260903160125 31 85 1.6 8.0 0.00 0.00 0.00 66 1021.6
20260903160027 31 82 1.6 6.4 0.00 0.00 0.00 67 1021.7
20260903155923 30 82 1.6 6.4 0.00 0.00 0.00 66 1021.6
20260903155813 30 82 1.6 6.4 0.00 0.00 0.00 65 1021.6
20260903155714 30 82 1.6 6.4 0.00 0.00 0.00 64 1021.9
20260903155614 30 117 1.6 4.8 0.00 0.00 0.00 68 1021.7
20260903155514 30 127 1.6 4.8 0.00 0.00 0.00 68 1021.9
20260903155414 30 127 1.6 4.8 0.00 0.00 0.00 68 1021.9
20260903155307 30 127 0.0 4.8 0.00 0.00 0.00 67 1021.9
20260903155207 30 127 0.0 4.8 0.00 0.00 0.00 68 1021.9
20260903155109 30 127 0.0 4.8 0.00 0.00 0.00 67 1021.9
20260903155007 30 127 0.0 4.8 0.00 0.00 0.00 69 1022.0
20260903154907 30 128 0.0 0.0 0.00 0.00 0.00 66 1022.0
20260903154802 30 127 0.0 0.0 0.00 0.00 0.00 68 1022.0
20260903154702 30 96 0.0 0.0 0.00 0.00 0.00 70 1022.0
20260903154603 30 94 0.0 0.0 0.00 0.00 0.00 69 1022.0
20260903154501 30 103 0.0 0.0 0.00 0.00 0.00 67 1022.0
20260903154402 30 103 0.0 0.0 0.00 0.00 0.00 67 1021.9
20260903154251 30 103 0.0 0.0 0.00 0.00 0.00 69 1021.9
20260903154152 30 78 0.0 0.0 0.00 0.00 0.00 70 1022.0
20260903154052 30 77 0.0 0.0 0.00 0.00 0.00 69 1021.9
20260903153952 30 78 0.0 0.0 0.00 0.00 0.00 69 1022.0
20260903153852 30 82 0.0 0.0 0.00 0.00 0.00 69 1022.0
20260903153748 30 81 0.0 0.0 0.00 0.00 0.00 74 1022.0
20260903153648 30 30 0.0 0.0 0.00 0.00 0.00 73 1021.9
20260903153547 30 29 0.0 0.0 0.00 0.00 0.00 72 1022.0
20260903153448 30 30 0.0 0.0 0.00 0.00 0.00 72 1022.0
20260903153345 30 30 0.0 0.0 0.00 0.00 0.00 72 1022.0
20260903153245 30 30 0.0 0.0 0.00 0.00 0.00 72 1021.9
20260903153145 30 30 0.0 0.0 0.00 0.00 0.00 72 1022.0
20260903153043 30 30 0.0 0.0 0.00 0.00 0.00 73 1022.0
20260903152943 30 69 0.0 0.0 0.00 0.00 0.00 72 1022.0
20260903152840 30 69 0.0 0.0 0.00 0.00 0.00 73 1021.9
20260903152734 30 77 0.0 0.0 0.00 0.00 0.00 74 1022.0
20260903152633 30 53 0.0 0.0 0.00 0.00 0.00 73 1022.0
20260903152534 30 16 0.0 0.0 0.00 0.00 0.00 73 1021.9
20260903152432 30 16 0.0 0.0 0.00 0.00 0.00 72 1021.7
20260903152330 30 17 0.0 0.0 0.00 0.00 0.00 72 1021.9
20260903152225 30 23 0.0 0.0 0.00 0.00 0.00 74 1022.0
20260903152124 30 23 0.0 0.0 0.00 0.00 0.00 73 1021.9
20260903152023 30 19 0.0 0.0 0.00 0.00 0.00 74 1021.9
20260903151924 30 24 0.0 0.0 0.00 0.00 0.00 73 1022.0
20260903151824 30 27 0.0 0.0 0.00 0.00 0.00 73 1021.9
20260903151724 30 28 0.0 0.0 0.00 0.00 0.00 72 1021.9
20260903151621 30 0 0.0 0.0 0.00 0.00 0.00 72 1022.0
20260903151521 30 344 0.0 0.0 0.00 0.00 0.00 74 1022.0
20260903151421 30 5 0.0 0.0 0.00 0.00 0.00 73 1022.0
20260903151317 30 24 0.0 0.0 0.00 0.00 0.00 73 1022.0
20260903151210 30 109 0.0 0.0 0.00 0.00 0.00 72 1022.0
20260903151107 30 84 0.0 0.0 0.00 0.00 0.00 74 1022.0
20260903151007 30 103 0.0 0.0 0.00 0.00 0.00 72 1021.9
20260903150909 30 103 0.0 0.0 0.00 0.00 0.00 72 1022.0
20260903150808 30 96 0.0 0.0 0.00 0.00 0.00 71 1021.9
20260903150701 30 96 0.0 0.0 0.00 0.00 0.00 69 1022.0
20260903150602 30 96 0.0 0.0 0.00 0.00 0.00 69 1022.0
20260903150501 30 111 0.0 4.8 0.00 0.00 0.00 71 1022.0
20260903150400 30 104 0.0 4.8 0.00 0.00 0.00 71 1022.0
20260903150302 30 215 1.6 4.8 0.00 0.00 0.00 71 1022.0
20260903150202 30 215 1.6 4.8 0.00 0.00 0.00 72 1021.9
20260903150101 30 112 1.6 8.0 0.00 0.00 0.00 72 1022.0
20260903145958 30 111 3.2 8.0 0.00 0.00 0.00 72 1021.9
20260903145858 30 105 3.2 8.0 0.00 0.00 0.00 71 1021.7
20260903145755 30 87 3.2 8.0 0.00 0.00 0.00 73 1021.9
20260903145649 30 62 3.2 8.0 0.00 0.00 0.00 74 1021.9
20260903145549 30 62 4.8 8.0 0.00 0.00 0.00 71 1021.9
20260903145449 30 62 4.8 9.7 0.00 0.00 0.00 70 1021.9
20260903145349 30 62 4.8 9.7 0.00 0.00 0.00 74 1021.7
20260903145245 30 62 4.8 9.7 0.00 0.00 0.00 73 1021.7
20260903145143 30 62 4.8 9.7 0.00 0.00 0.00 74 1021.7
20260903145043 30 43 3.2 9.7 0.00 0.00 0.00 73 1021.9
20260903144943 30 99 3.2 9.7 0.00 0.00 0.00 71 1021.9
20260903144841 30 98 3.2 9.7 0.00 0.00 0.00 72 1021.7
20260903144739 30 71 3.2 9.7 0.00 0.00 0.00 73 1021.7
20260903144633 29 67 1.6 9.7 0.00 0.00 0.00 72 1021.7
20260903144533 29 65 1.6 9.7 0.00 0.00 0.00 72 1021.9
20260903144435 29 38 1.6 6.4 0.00 0.00 0.00 72 1021.9
20260903144333 29 38 0.0 6.4 0.00 0.00 0.00 74 1021.7
20260903144234 29 84 0.0 4.8 0.00 0.00 0.00 72 1021.7
20260903144126 29 83 0.0 0.0 0.00 0.00 0.00 71 1021.7
20260903144024 29 83 0.0 0.0 0.00 0.00 0.00 72 1021.9
20260903143924 29 82 0.0 0.0 0.00 0.00 0.00 73 1021.7
20260903143824 29 83 0.0 0.0 0.00 0.00 0.00 72 1021.6
20260903143724 29 83 0.0 0.0 0.00 0.00 0.00 72 1021.7
20260903143625 30 83 0.0 0.0 0.00 0.00 0.00 73 1021.9
20260903143521 29 72 0.0 0.0 0.00 0.00 0.00 72 1021.9
20260903143423 29 101 0.0 0.0 0.00 0.00 0.00 73 1021.9
20260903143320 29 97 0.0 0.0 0.00 0.00 0.00 73 1021.7
20260903143217 29 97 0.0 0.0 0.00 0.00 0.00 71 1021.9
20260903143112 29 95 0.0 0.0 0.00 0.00 0.00 73 1021.7
20260903143011 29 138 0.0 0.0 0.00 0.00 0.00 73 1021.7
20260903142913 29 103 0.0 0.0 0.00 0.00 0.00 75 1021.9
20260903142811 29 103 0.0 0.0 0.00 0.00 0.00 73 1021.6
20260903142712 29 104 0.0 0.0 0.00 0.00 0.00 72 1021.7
20260903142602 29 106 0.0 0.0 0.00 0.00 0.00 72 1021.6
20260903142501 29 110 0.0 0.0 0.00 0.00 0.00 73 1021.7
20260903142402 29 86 0.0 0.0 0.00 0.00 0.00 72 1021.7
20260903142301 29 111 0.0 0.0 0.00 0.00 0.00 71 1021.7
20260903142201 29 111 0.0 0.0 0.00 0.00 0.00 75 1021.6
20260903142059 29 111 0.0 0.0 0.00 0.00 0.00 73 1021.6
20260903142000 29 114 0.0 0.0 0.00 0.00 0.00 72 1021.6
20260903141859 28 114 0.0 0.0 0.00 0.00 0.00 73 1021.6
20260903141758 28 114 0.0 0.0 0.00 0.00 0.00 72 1021.7
20260903141656 28 114 0.0 0.0 0.00 0.00 0.00 73 1021.6
20260903141553 28 114 0.0 0.0 0.00 0.00 0.00 72 1021.7
20260903141452 28 113 0.0 0.0 0.00 0.00 0.00 72 1021.7
20260903141353 28 113 0.0 0.0 0.00 0.00 0.00 73 1021.7
20260903141252 28 338 0.0 0.0 0.00 0.00 0.00 75 1021.7
20260903141150 28 324 0.0 0.0 0.00 0.00 0.00 75 1021.7
20260903141043 28 324 0.0 0.0 0.00 0.00 0.00 74 1021.6
20260903140943 28 325 0.0 0.0 0.00 0.00 0.00 75 1021.9
20260903140844 28 323 0.0 0.0 0.00 0.00 0.00 77 1021.7
20260903140742 28 323 0.0 0.0 0.00 0.00 0.00 75 1021.7
20260903140639 28 323 0.0 0.0 0.00 0.00 0.00 74 1021.7
20260903140539 28 323 0.0 0.0 0.00 0.00 0.00 74 1021.7
20260903140439 27 323 0.0 0.0 0.00 0.00 0.00 75 1021.6
20260903140337 27 323 0.0 0.0 0.00 0.00 0.00 76 1021.6
20260903140237 27 322 0.0 0.0 0.00 0.00 0.00 76 1021.7
20260903140133 27 322 0.0 0.0 0.00 0.00 0.00 77 1021.6
20260903140033 27 322 0.0 0.0 0.00 0.00 0.00 75 1021.7
20260903135932 27 322 0.0 0.0 0.00 0.00 0.00 75 1021.6
20260903135831 27 323 0.0 0.0 0.00 0.00 0.00 75 1021.6
20260903135730 27 323 0.0 0.0 0.00 0.00 0.00 76 1021.6
20260903135627 27 323 0.0 0.0 0.00 0.00 0.00 76 1021.6
20260903135521 27 323 0.0 0.0 0.00 0.00 0.00 77 1021.6
20260903135421 27 323 0.0 0.0 0.00 0.00 0.00 77 1021.6
20260903135320 27 323 0.0 0.0 0.00 0.00 0.00 76 1021.7
20260903135220 27 322 0.0 0.0 0.00 0.00 0.00 78 1021.7
20260903135118 27 322 0.0 0.0 0.00 0.00 0.00 78 1021.6
20260903135015 27 322 0.0 0.0 0.00 0.00 0.00 78 1021.6
20260903134915 27 322 0.0 0.0 0.00 0.00 0.00 77 1021.6
20260903134815 27 321 0.0 0.0 0.00 0.00 0.00 79 1021.6
20260903134713 27 322 0.0 0.0 0.00 0.00 0.00 78 1021.7
20260903134611 27 321 0.0 6.4 0.00 0.00 0.00 77 1021.6
20260903134509 27 321 0.0 6.4 0.00 0.00 0.00 77 1021.6
20260903134405 27 321 0.0 6.4 0.00 0.00 0.00 77 1021.6
20260903134307 27 322 0.0 6.4 0.00 0.00 0.00 78 1021.6
20260903134206 27 322 0.0 6.4 0.00 0.00 0.00 78 1021.6
20260903134106 27 322 0.0 6.4 0.00 0.00 0.00 79 1021.6
20260903134000 27 321 0.0 6.4 0.00 0.00 0.00 79 1021.6
20260903133900 27 321 0.0 6.4 0.00 0.00 0.00 79 1021.6
20260903133802 27 320 0.0 6.4 0.00 0.00 0.00 79 1021.6
20260903133658 27 319 0.0 6.4 0.00 0.00 0.00 78 1021.6
20260903133556 27 319 0.0 4.8 0.00 0.00 0.00 79 1021.7
20260903133455 27 312 0.0 3.2 0.00 0.00 0.00 80 1021.6
20260903133353 27 306 0.0 1.6 0.00 0.00 0.00 80 1021.6
20260903133253 27 304 0.0 1.6 0.00 0.00 0.00 80 1021.6
20260903133152 27 303 0.0 0.0 0.00 0.00 0.00 79 1021.7
20260903133050 27 303 0.0 0.0 0.00 0.00 0.00 80 1021.6
20260903132946 27 303 0.0 0.0 0.00 0.00 0.00 80 1021.6
20260903132844 27 302 0.0 0.0 0.00 0.00 0.00 80 1021.6
20260903132744 27 302 0.0 0.0 0.00 0.00 0.00 80 1021.6
20260903132644 27 302 0.0 0.0 0.00 0.00 0.00 80 1021.7
20260903132544 26 302 0.0 0.0 0.00 0.00 0.00 79 1021.9
20260903132436 26 302 0.0 0.0 0.00 0.00 0.00 79 1021.7
20260903132338 26 302 0.0 0.0 0.00 0.00 0.00 78 1021.7
20260903132237 26 302 0.0 0.0 0.00 0.00 0.00 80 1021.6
20260903132136 26 302 0.0 0.0 0.00 0.00 0.00 81 1021.9
20260903132033 26 302 0.0 0.0 0.00 0.00 0.00 80 1021.7
20260903131933 26 302 0.0 0.0 0.00 0.00 0.00 81 1021.6
20260903131830 26 302 0.0 1.6 0.00 0.00 0.00 80 1021.6
20260903131731 26 302 0.0 1.6 0.00 0.00 0.00 81 1021.7
20260903131630 26 302 0.0 1.6 0.00 0.00 0.00 82 1021.6
20260903131528 26 302 0.0 1.6 0.00 0.00 0.00 81 1021.7
20260903131424 26 302 0.0 1.6 0.00 0.00 0.00 82 1021.6
20260903131322 26 302 0.0 1.6 0.00 0.00 0.00 81 1021.7
20260903131223 26 302 0.0 1.6 0.00 0.00 0.00 81 1021.6
20260903131121 26 302 0.0 1.6 0.00 0.00 0.00 81 1021.6
20260903131022 26 302 0.0 1.6 0.00 0.00 0.00 81 1021.6
20260903130915 26 302 0.0 1.6 0.00 0.00 0.00 82 1021.9
20260903130815 26 302 0.0 1.6 0.00 0.00 0.00 82 1021.7
20260903130715 26 302 0.0 1.6 0.00 0.00 0.00 83 1021.7
20260903130616 26 300 0.0 1.6 0.00 0.00 0.00 83 1021.7
20260903130512 26 298 0.0 1.6 0.00 0.00 0.00 83 1021.7
20260903130407 26 298 0.0 1.6 0.00 0.00 0.00 82 1021.7
20260903130306 26 298 0.0 4.8 0.00 0.00 0.00 82 1021.7
20260903130208 26 298 1.6 6.4 0.00 0.00 0.00 82 1021.6
20260903130108 26 298 1.6 8.0 0.00 0.00 0.00 81 1021.7
20260903130006 26 297 1.6 9.7 0.00 0.00 0.00 81 1021.7
20260903125903 26 297 1.6 9.7 0.00 0.00 0.00 82 1021.6
20260903125759 26 297 1.6 9.7 0.00 0.00 0.00 82 1021.7
20260903125700 26 297 1.6 9.7 0.00 0.00 0.00 81 1021.6
20260903125600 26 296 1.6 9.7 0.00 0.00 0.00 81 1021.6
20260903125500 26 296 1.6 9.7 0.00 0.00 0.00 81 1021.6
20260903125353 26 296 1.6 9.7 0.00 0.00 0.00 81 1021.6
20260903125249 26 296 1.6 9.7 0.00 0.00 0.00 81 1021.6
20260903125150 26 328 0.0 9.7 0.00 0.00 0.00 82 1021.6
20260903125049 26 330 0.0 8.0 0.00 0.00 0.00 81 1021.6
20260903124950 26 329 0.0 6.4 0.00 0.00 0.00 81 1021.6
20260903124846 26 331 0.0 6.4 0.00 0.00 0.00 80 1021.6
20260903124745 26 327 0.0 6.4 0.00 0.00 0.00 80 1021.6
20260903124644 26 328 0.0 6.4 0.00 0.00 0.00 80 1021.6
20260903124544 26 331 0.0 6.4 0.00 0.00 0.00 80 1021.6
20260903124443 26 329 0.0 6.4 0.00 0.00 0.00 79 1021.6
20260903124340 27 326 0.0 6.4 0.00 0.00 0.00 78 1021.6
20260903124237 27 317 0.0 6.4 0.00 0.00 0.00 78 1021.6
20260903124138 27 334 0.0 6.4 0.00 0.00 0.00 78 1021.7
20260903124038 27 334 0.0 1.6 0.00 0.00 0.00 77 1021.6
20260903123938 27 336 0.0 0.0 0.00 0.00 0.00 77 1021.6
20260903123832 27 329 0.0 0.0 0.00 0.00 0.00 77 1021.6
20260903123730 27 327 0.0 0.0 0.00 0.00 0.00 77 1021.6
20260903123631 27 331 0.0 0.0 0.00 0.00 0.00 77 1021.5
20260903123531 28 313 0.0 0.0 0.00 0.00 0.00 78 1021.5
20260903123428 27 304 0.0 0.0 0.00 0.00 0.00 77 1021.4
20260903123322 27 276 0.0 0.0 0.00 0.00 0.00 74 1021.4
20260903123221 27 264 0.0 0.0 0.00 0.00 0.00 74 1021.4
20260903123123 27 264 0.0 0.0 0.00 0.00 0.00 74 1021.3
20260903123021 27 264 0.0 0.0 0.00 0.00 0.00 75 1021.4
20260903122921 27 264 0.0 0.0 0.00 0.00 0.00 75 1021.3
20260903122819 27 264 0.0 0.0 0.00 0.00 0.00 74 1021.4
20260903122715 27 264 0.0 0.0 0.00 0.00 0.00 74 1021.3
20260903122616 27 264 0.0 0.0 0.00 0.00 0.00 74 1021.3
20260903122516 27 264 0.0 0.0 0.00 0.00 0.00 75 1021.3
20260903122415 27 264 0.0 0.0 0.00 0.00 0.00 74 1021.3
20260903122306 27 264 0.0 0.0 0.00 0.00 0.00 75 1021.3
20260903122204 27 264 0.0 0.0 0.00 0.00 0.00 75 1021.4
20260903122106 27 264 0.0 0.0 0.00 0.00 0.00 75 1021.4
20260903122007 27 264 0.0 0.0 0.00 0.00 0.00 74 1021.4
20260903121906 27 264 0.0 0.0 0.00 0.00 0.00 74 1021.4
20260903121800 27 264 0.0 0.0 0.00 0.00 0.00 75 1021.4
20260903121700 27 263 0.0 0.0 0.00 0.00 0.00 76 1021.4
20260903121600 27 263 0.0 0.0 0.00 0.00 0.00 77 1021.3
20260903121459 27 263 0.0 0.0 0.00 0.00 0.00 76 1021.3
20260903121359 27 263 0.0 0.0 0.00 0.00 0.00 76 1021.3
20260903121256 27 263 0.0 0.0 0.00 0.00 0.00 76 1021.3
20260903121153 27 263 0.0 0.0 0.00 0.00 0.00 76 1021.3
20260903121054 27 263 0.0 0.0 0.00 0.00 0.00 76 1021.3
20260903120954 27 263 0.0 0.0 0.00 0.00 0.00 76 1021.3
20260903120854 27 263 0.0 0.0 0.00 0.00 0.00 77 1021.2
20260903120745 27 263 0.0 0.0 0.00 0.00 0.00 77 1021.2
20260903120643 27 263 0.0 0.0 0.00 0.00 0.00 76 1021.2
20260903120544 27 263 0.0 0.0 0.00 0.00 0.00 78 1021.2
20260903120444 26 263 0.0 0.0 0.00 0.00 0.00 78 1021.1
20260903120344 26 263 0.0 0.0 0.00 0.00 0.00 77 1021.1
20260903120240 26 263 0.0 0.0 0.00 0.00 0.00 77 1021.1
20260903120137 26 263 0.0 0.0 0.00 0.00 0.00 77 1021.1
20260903120037 26 263 0.0 0.0 0.00 0.00 0.00 77 1021.2
20260903115938 26 263 0.0 0.0 0.00 0.00 0.00 77 1021.1
20260903115838 26 263 0.0 0.0 0.00 0.00 0.00 77 1021.2
20260903115734 26 263 0.0 0.0 0.00 0.00 0.00 76 1021.2
20260903115630 26 263 0.0 0.0 0.00 0.00 0.00 76 1021.1
20260903115532 26 263 0.0 0.0 0.00 0.00 0.00 77 1021.0
20260903115432 26 263 0.0 0.0 0.00 0.00 0.00 77 1021.0
20260903115331 26 263 0.0 0.0 0.00 0.00 0.00 77 1021.1
20260903115223 26 264 0.0 0.0 0.00 0.00 0.00 77 1021.1
20260903115121 26 264 0.0 0.0 0.00 0.00 0.00 77 1021.0
20260903115022 26 263 0.0 0.0 0.00 0.00 0.00 77 1021.1
20260903114922 26 264 0.0 0.0 0.00 0.00 0.00 77 1021.1
20260903114822 26 264 0.0 0.0 0.00 0.00 0.00 76 1021.1
20260903114718 26 264 0.0 0.0 0.00 0.00 0.00 76 1021.1
20260903114614 26 264 0.0 0.0 0.00 0.00 0.00 76 1021.1
20260903114515 26 264 0.0 0.0 0.00 0.00 0.00 76 1021.1
20260903114416 26 264 0.0 0.0 0.00 0.00 0.00 76 1021.1
20260903114316 26 264 0.0 0.0 0.00 0.00 0.00 76 1021.1
20260903114212 26 264 0.0 0.0 0.00 0.00 0.00 76 1021.0
20260903114109 26 264 0.0 0.0 0.00 0.00 0.00 76 1021.0
20260903114010 26 264 0.0 0.0 0.00 0.00 0.00 76 1020.9
20260903113909 26 264 0.0 0.0 0.00 0.00 0.00 76 1021.0
20260903113809 26 264 0.0 0.0 0.00 0.00 0.00 76 1021.0
20260903113659 26 264 0.0 0.0 0.00 0.00 0.00 76 1020.9
20260903113558 26 264 0.0 0.0 0.00 0.00 0.00 76 1020.9
20260903113500 26 264 0.0 0.0 0.00 0.00 0.00 76 1021.0
20260903113358 26 264 0.0 0.0 0.00 0.00 0.00 76 1021.0
20260903113300 26 264 0.0 0.0 0.00 0.00 0.00 76 1020.9
20260903113156 26 264 0.0 0.0 0.00 0.00 0.00 76 1020.9
20260903113053 26 264 0.0 0.0 0.00 0.00 0.00 76 1020.9
20260903112952 26 264 0.0 0.0 0.00 0.00 0.00 77 1020.9
20260903112853 26 264 0.0 0.0 0.00 0.00 0.00 76 1020.8
20260903112754 26 262 0.0 0.0 0.00 0.00 0.00 76 1020.8
20260903112650 26 261 0.0 0.0 0.00 0.00 0.00 76 1020.8
20260903112547 26 261 0.0 0.0 0.00 0.00 0.00 76 1020.8
20260903112448 26 261 0.0 0.0 0.00 0.00 0.00 76 1020.7
20260903112346 26 259 0.0 0.0 0.00 0.00 0.00 76 1020.8
20260903112249 26 246 0.0 0.0 0.00 0.00 0.00 76 1020.7
20260903112139 26 257 0.0 0.0 0.00 0.00 0.00 76 1020.7
20260903112037 26 248 0.0 0.0 0.00 0.00 0.00 76 1020.8
20260903111938 26 259 0.0 0.0 0.00 0.00 0.00 76 1020.7
20260903111836 26 261 0.0 0.0 0.00 0.00 0.00 76 1020.8
20260903111738 26 261 0.0 0.0 0.00 0.00 0.00 76 1020.8
20260903111635 26 261 0.0 0.0 0.00 0.00 0.00 76 1020.7
20260903111536 26 226 0.0 0.0 0.00 0.00 0.00 76 1020.7
20260903111433 26 244 0.0 0.0 0.00 0.00 0.00 76 1020.8
20260903111333 26 256 0.0 0.0 0.00 0.00 0.00 76 1020.8
20260903111232 26 258 0.0 0.0 0.00 0.00 0.00 76 1020.7
20260903111130 26 258 0.0 0.0 0.00 0.00 0.00 76 1020.7
20260903111030 26 259 0.0 0.0 0.00 0.00 0.00 76 1020.7
20260903110926 26 259 0.0 0.0 0.00 0.00 0.00 76 1020.7
20260903110828 25 259 0.0 0.0 0.00 0.00 0.00 76 1020.7
20260903110725 25 259 0.0 0.0 0.00 0.00 0.00 76 1020.7
20260903110618 25 259 0.0 0.0 0.00 0.00 0.00 76 1020.7
20260903110519 25 259 0.0 0.0 0.00 0.00 0.00 76 1020.7
20260903110420 25 259 0.0 0.0 0.00 0.00 0.00 76 1020.7
20260903110318 25 259 0.0 0.0 0.00 0.00 0.00 77 1020.7
20260903110215 25 259 0.0 0.0 0.00 0.00 0.00 77 1020.7
20260903110110 25 259 0.0 0.0 0.00 0.00 0.00 76 1020.7
20260903110010 25 259 0.0 0.0 0.00 0.00 0.00 76 1020.7
20260903105909 25 259 0.0 0.0 0.00 0.00 0.00 76 1020.7
20260903105809 25 259 0.0 0.0 0.00 0.00 0.00 76 1020.6
20260903105709 25 259 0.0 0.0 0.00 0.00 0.00 76 1020.7
20260903105605 25 259 0.0 0.0 0.00 0.00 0.00 76 1020.7
20260903105504 25 259 0.0 0.0 0.00 0.00 0.00 76 1020.7
20260903105404 25 259 0.0 0.0 0.00 0.00 0.00 77 1020.7
20260903105306 25 259 0.0 0.0 0.00 0.00 0.00 77 1020.7
20260903105204 25 259 0.0 0.0 0.00 0.00 0.00 77 1020.7
20260903105056 25 259 0.0 0.0 0.00 0.00 0.00 77 1020.7
20260903104958 25 259 0.0 0.0 0.00 0.00 0.00 77 1020.7
20260903104858 25 259 0.0 0.0 0.00 0.00 0.00 77 1020.7
20260903104755 25 259 0.0 0.0 0.00 0.00 0.00 77 1020.7
20260903104654 25 259 0.0 0.0 0.00 0.00 0.00 77 1020.7
20260903104553 25 259 0.0 0.0 0.00 0.00 0.00 77 1020.6
20260903104450 25 259 0.0 0.0 0.00 0.00 0.00 77 1020.6
20260903104352 25 259 0.0 0.0 0.00 0.00 0.00 77 1020.7
20260903104249 25 259 0.0 0.0 0.00 0.00 0.00 77 1020.6
20260903104148 25 259 0.0 0.0 0.00 0.00 0.00 77 1020.6
20260903104047 25 259 0.0 0.0 0.00 0.00 0.00 77 1020.6
20260903103946 25 259 0.0 0.0 0.00 0.00 0.00 77 1020.7
20260903103845 25 259 0.0 0.0 0.00 0.00 0.00 77 1020.7
20260903103744 25 259 0.0 0.0 0.00 0.00 0.00 77 1020.6
20260903103641 25 259 0.0 0.0 0.00 0.00 0.00 77 1020.6
20260903103535 25 259 0.0 0.0 0.00 0.00 0.00 77 1020.6
20260903103435 25 259 0.0 0.0 0.00 0.00 0.00 77 1020.6
20260903103336 25 259 0.0 0.0 0.00 0.00 0.00 77 1020.6
20260903103234 25 259 0.0 0.0 0.00 0.00 0.00 77 1020.6
20260903103132 25 259 0.0 0.0 0.00 0.00 0.00 77 1020.6
20260903103030 25 259 0.0 0.0 0.00 0.00 0.00 77 1020.6
20260903102929 25 259 0.0 0.0 0.00 0.00 0.00 77 1020.6
20260903102830 25 259 0.0 0.0 0.00 0.00 0.00 77 1020.6
20260903102727 25 259 0.0 0.0 0.00 0.00 0.00 77 1020.6
20260903102626 25 259 0.0 0.0 0.00 0.00 0.00 77 1020.6
20260903102525 25 259 0.0 0.0 0.00 0.00 0.00 77 1020.6
20260903102424 25 259 0.0 0.0 0.00 0.00 0.00 77 1020.5
20260903102321 25 259 0.0 0.0 0.00 0.00 0.00 77 1020.5
20260903102222 25 259 0.0 0.0 0.00 0.00 0.00 77 1020.5
20260903102120 25 259 0.0 0.0 0.00 0.00 0.00 77 1020.6
20260903102012 25 259 0.0 0.0 0.00 0.00 0.00 77 1020.5
20260903101910 25 259 0.0 0.0 0.00 0.00 0.00 77 1020.5
20260903101810 25 259 0.0 0.0 0.00 0.00 0.00 77 1020.5
20260903101709 25 259 0.0 0.0 0.00 0.00 0.00 77 1020.5
20260903101610 25 259 0.0 0.0 0.00 0.00 0.00 77 1020.5
20260903101505 25 259 0.0 0.0 0.00 0.00 0.00 77 1020.4
20260903101402 25 259 0.0 0.0 0.00 0.00 0.00 77 1020.4
20260903101303 25 259 0.0 0.0 0.00 0.00 0.00 77 1020.4
20260903101203 25 259 0.0 0.0 0.00 0.00 0.00 77 1020.4
20260903101104 25 259 0.0 0.0 0.00 0.00 0.00 77 1020.4
20260903101000 25 259 0.0 0.0 0.00 0.00 0.00 77 1020.4
20260903100856 25 259 0.0 0.0 0.00 0.00 0.00 77 1020.4
20260903100758 25 259 0.0 0.0 0.00 0.00 0.00 77 1020.5
20260903100658 25 259 0.0 0.0 0.00 0.00 0.00 77 1020.4
20260903100559 25 259 0.0 0.0 0.00 0.00 0.00 77 1020.4
20260903100450 25 259 0.0 0.0 0.00 0.00 0.00 77 1020.4
20260903100347 25 259 0.0 0.0 0.00 0.00 0.00 77 1020.4
20260903100247 25 259 0.0 0.0 0.00 0.00 0.00 77 1020.4
20260903100148 25 259 0.0 0.0 0.00 0.00 0.00 77 1020.5
20260903100047 25 259 0.0 0.0 0.00 0.00 0.00 77 1020.4
20260903095948 25 259 0.0 0.0 0.00 0.00 0.00 77 1020.4
20260903095845 25 259 0.0 0.0 0.00 0.00 0.00 77 1020.4
20260903095746 25 259 0.0 0.0 0.00 0.00 0.00 77 1020.4
20260903095644 25 259 0.0 0.0 0.00 0.00 0.00 77 1020.4
20260903095542 25 259 0.0 0.0 0.00 0.00 0.00 77 1020.4
20260903095441 25 259 0.0 0.0 0.00 0.00 0.00 77 1020.3
20260903095339 25 259 0.0 0.0 0.00 0.00 0.00 77 1020.4
20260903095239 25 259 0.0 0.0 0.00 0.00 0.00 77 1020.3
20260903095138 25 259 0.0 0.0 0.00 0.00 0.00 77 1020.4
20260903095036 25 259 0.0 0.0 0.00 0.00 0.00 77 1020.4
20260903094935 25 259 0.0 0.0 0.00 0.00 0.00 77 1020.4
20260903094833 25 259 0.0 0.0 0.00 0.00 0.00 77 1020.3
20260903094734 25 259 0.0 0.0 0.00 0.00 0.00 77 1020.4
20260903094631 25 259 0.0 0.0 0.00 0.00 0.00 77 1020.4
20260903094532 25 259 0.0 0.0 0.00 0.00 0.00 77 1020.4
20260903094429 25 259 0.0 0.0 0.00 0.00 0.00 77 1020.4
20260903094327 25 259 0.0 0.0 0.00 0.00 0.00 77 1020.4
20260903094226 25 259 0.0 0.0 0.00 0.00 0.00 77 1020.4
20260903094125 25 259 0.0 0.0 0.00 0.00 0.00 77 1020.4
20260903094026 25 259 0.0 0.0 0.00 0.00 0.00 77 1020.4
20260903093923 25 259 0.0 0.0 0.00 0.00 0.00 77 1020.4
20260903093821 25 259 0.0 0.0 0.00 0.00 0.00 77 1020.4
20260903093719 25 259 0.0 0.0 0.00 0.00 0.00 77 1020.4
20260903093618 25 252 0.0 0.0 0.00 0.00 0.00 77 1020.4
20260903093520 25 249 0.0 0.0 0.00 0.00 0.00 77 1020.3
20260903093418 25 202 0.0 0.0 0.00 0.00 0.00 77 1020.4
20260903093315 25 196 0.0 0.0 0.00 0.00 0.00 77 1020.4
20260903093213 25 196 0.0 0.0 0.00 0.00 0.00 77 1020.2
20260903093114 25 196 0.0 0.0 0.00 0.00 0.00 77 1020.2
20260903093012 25 196 0.0 0.0 0.00 0.00 0.00 77 1020.3
20260903092912 25 196 0.0 0.0 0.00 0.00 0.00 78 1020.3
20260903092809 25 196 0.0 0.0 0.00 0.00 0.00 78 1020.2
20260903092710 25 196 0.0 0.0 0.00 0.00 0.00 78 1020.2
20260903092608 25 196 0.0 0.0 0.00 0.00 0.00 78 1020.2
20260903092506 25 196 0.0 0.0 0.00 0.00 0.00 78 1020.3
20260903092407 25 196 0.0 0.0 0.00 0.00 0.00 78 1020.3
20260903092308 25 196 0.0 0.0 0.00 0.00 0.00 78 1020.2
20260903092206 25 196 0.0 0.0 0.00 0.00 0.00 78 1020.3
20260903092107 25 196 0.0 0.0 0.00 0.00 0.00 78 1020.3
20260903092006 25 196 0.0 0.0 0.00 0.00 0.00 78 1020.4
20260903091908 25 196 0.0 0.0 0.00 0.00 0.00 78 1020.3
20260903091806 25 196 0.0 0.0 0.00 0.00 0.00 78 1020.2
20260903091705 25 196 0.0 0.0 0.00 0.00 0.00 78 1020.2
20260903091606 25 196 0.0 0.0 0.00 0.00 0.00 78 1020.2
20260903091505 25 196 0.0 0.0 0.00 0.00 0.00 78 1020.3
20260903091405 25 196 0.0 0.0 0.00 0.00 0.00 78 1020.3
20260903091306 25 196 0.0 0.0 0.00 0.00 0.00 78 1020.3
20260903091204 25 196 0.0 0.0 0.00 0.00 0.00 78 1020.3
20260903091106 25 196 0.0 0.0 0.00 0.00 0.00 78 1020.3
20260903091003 25 196 0.0 0.0 0.00 0.00 0.00 78 1020.3
20260903090903 25 196 0.0 0.0 0.00 0.00 0.00 79 1020.3
20260903090802 25 196 0.0 0.0 0.00 0.00 0.00 79 1020.3
20260903090703 25 196 0.0 0.0 0.00 0.00 0.00 79 1020.3
20260903090603 25 196 0.0 0.0 0.00 0.00 0.00 79 1020.4
20260903090503 25 196 0.0 0.0 0.00 0.00 0.00 79 1020.2
20260903090403 25 196 0.0 0.0 0.00 0.00 0.00 79 1020.3
20260903090303 25 196 0.0 0.0 0.00 0.00 0.00 79 1020.3
20260903090203 25 196 0.0 0.0 0.00 0.00 0.00 79 1020.3
20260903090004 25 196 0.0 0.0 0.00 0.00 0.00 79 1020.3
20260903085903 25 196 0.0 0.0 0.00 0.00 0.00 79 1020.2
20260903085803 25 196 0.0 0.0 0.00 0.00 0.00 79 1020.2
20260903085703 25 196 0.0 0.0 0.00 0.00 0.00 79 1020.2
20260903085602 25 196 0.0 0.0 0.00 0.00 0.00 79 1020.2
20260903085504 25 196 0.0 0.0 0.00 0.00 0.00 79 1020.2
20260903085402 25 196 0.0 0.0 0.00 0.00 0.00 79 1020.2
20260903085305 25 196 0.0 0.0 0.00 0.00 0.00 79 1020.2
20260903085202 25 196 0.0 0.0 0.00 0.00 0.00 79 1020.3
20260903085103 25 196 0.0 0.0 0.00 0.00 0.00 79 1020.2
20260903085003 25 196 0.0 0.0 0.00 0.00 0.00 79 1020.2
20260903084903 25 196 0.0 0.0 0.00 0.00 0.00 79 1020.2
20260903084803 25 196 0.0 0.0 0.00 0.00 0.00 79 1020.2
20260903084703 25 196 0.0 0.0 0.00 0.00 0.00 80 1020.3
20260903084603 25 196 0.0 0.0 0.00 0.00 0.00 80 1020.2
20260903084502 25 196 0.0 0.0 0.00 0.00 0.00 80 1020.2
20260903084403 25 196 0.0 0.0 0.00 0.00 0.00 80 1020.2
20260903084301 25 196 0.0 0.0 0.00 0.00 0.00 80 1020.2
20260903084202 25 196 0.0 0.0 0.00 0.00 0.00 80 1020.2
20260903084100 25 196 0.0 0.0 0.00 0.00 0.00 80 1020.2
20260903084002 25 196 0.0 0.0 0.00 0.00 0.00 80 1020.2
20260903083901 25 196 0.0 0.0 0.00 0.00 0.00 80 1020.0
20260903083800 25 196 0.0 0.0 0.00 0.00 0.00 80 1020.2
20260903083658 25 196 0.0 0.0 0.00 0.00 0.00 80 1020.0
20260903083558 25 196 0.0 0.0 0.00 0.00 0.00 80 1020.0
20260903083454 25 196 0.0 0.0 0.00 0.00 0.00 80 1020.0
20260903083354 25 196 0.0 0.0 0.00 0.00 0.00 80 1020.0
20260903083256 25 196 0.0 0.0 0.00 0.00 0.00 80 1020.0
20260903083153 25 196 0.0 0.0 0.00 0.00 0.00 80 1020.0
20260903083048 25 196 0.0 0.0 0.00 0.00 0.00 80 1020.0
20260903082948 25 196 0.0 0.0 0.00 0.00 0.00 80 1020.0
20260903082847 25 196 0.0 0.0 0.00 0.00 0.00 80 1020.0
20260903082748 25 196 0.0 0.0 0.00 0.00 0.00 80 1020.0
20260903082648 25 196 0.0 0.0 0.00 0.00 0.00 80 1020.0
20260903082546 25 196 0.0 0.0 0.00 0.00 0.00 80 1019.9
20260903082444 25 196 0.0 0.0 0.00 0.00 0.00 80 1020.0
20260903082345 25 196 0.0 0.0 0.00 0.00 0.00 80 1019.9
20260903082242 25 196 0.0 0.0 0.00 0.00 0.00 80 1020.0
20260903082142 25 196 0.0 0.0 0.00 0.00 0.00 80 1020.0
20260903082038 25 196 0.0 0.0 0.00 0.00 0.00 80 1020.2
20260903081936 25 196 0.0 0.0 0.00 0.00 0.00 80 1020.0
20260903081834 25 196 0.0 0.0 0.00 0.00 0.00 80 1020.0
20260903081734 25 196 0.0 0.0 0.00 0.00 0.00 80 1020.0
20260903081633 25 196 0.0 0.0 0.00 0.00 0.00 80 1020.2
20260903081533 25 196 0.0 0.0 0.00 0.00 0.00 80 1020.0
20260903081433 25 196 0.0 0.0 0.00 0.00 0.00 80 1020.0
20260903081332 25 196 0.0 0.0 0.00 0.00 0.00 80 1019.9
20260903081232 25 196 0.0 0.0 0.00 0.00 0.00 80 1020.0
20260903081130 25 196 0.0 0.0 0.00 0.00 0.00 80 1020.0
20260903081031 25 196 0.0 0.0 0.00 0.00 0.00 80 1019.9
20260903080929 25 196 0.0 0.0 0.00 0.00 0.00 80 1020.0
20260903080829 25 196 0.0 0.0 0.00 0.00 0.00 80 1020.0
20260903080728 25 196 0.0 0.0 0.00 0.00 0.00 80 1020.0
20260903080628 25 196 0.0 0.0 0.00 0.00 0.00 80 1020.0
20260903080528 25 196 0.0 0.0 0.00 0.00 0.00 81 1020.0
20260903080428 25 196 0.0 0.0 0.00 0.00 0.00 81 1020.2
20260903080329 25 196 0.0 0.0 0.00 0.00 0.00 81 1020.0
20260903080230 25 196 0.0 0.0 0.00 0.00 0.00 81 1020.0
20260903080129 25 196 0.0 0.0 0.00 0.00 0.00 81 1020.0
20260903080028 25 196 0.0 0.0 0.00 0.00 0.00 81 1020.0
20260903075928 25 196 0.0 0.0 0.00 0.00 0.00 81 1019.9
20260903075830 25 196 0.0 0.0 0.00 0.00 0.00 81 1020.0
20260903075728 25 196 0.0 0.0 0.00 0.00 0.00 81 1019.8
20260903075629 25 196 0.0 0.0 0.00 0.00 0.00 81 1019.9
20260903075528 25 196 0.0 0.0 0.00 0.00 0.00 81 1019.8
20260903075429 25 196 0.0 0.0 0.00 0.00 0.00 80 1019.8
20260903075328 25 196 0.0 0.0 0.00 0.00 0.00 80 1019.8
20260903075229 25 196 0.0 0.0 0.00 0.00 0.00 80 1019.8
20260903075129 25 196 0.0 0.0 0.00 0.00 0.00 80 1019.8
20260903075030 25 196 0.0 0.0 0.00 0.00 0.00 80 1019.7
20260903074929 25 196 0.0 0.0 0.00 0.00 0.00 80 1019.7
20260903074830 25 196 0.0 0.0 0.00 0.00 0.00 80 1019.8
20260903074729 25 196 0.0 0.0 0.00 0.00 0.00 80 1019.7
20260903074629 25 196 0.0 0.0 0.00 0.00 0.00 80 1019.8
20260903074530 25 196 0.0 0.0 0.00 0.00 0.00 81 1019.9
20260903074428 25 196 0.0 0.0 0.00 0.00 0.00 81 1019.9
20260903074331 25 196 0.0 0.0 0.00 0.00 0.00 80 1019.9
20260903074226 25 196 0.0 0.0 0.00 0.00 0.00 81 1019.9
20260903074125 25 196 0.0 0.0 0.00 0.00 0.00 81 1019.9
20260903074025 25 196 0.0 0.0 0.00 0.00 0.00 81 1019.9
20260903073924 25 196 0.0 0.0 0.00 0.00 0.00 81 1019.9
20260903073826 25 196 0.0 0.0 0.00 0.00 0.00 81 1019.9
20260903073726 25 196 0.0 0.0 0.00 0.00 0.00 81 1019.9
20260903073624 25 196 0.0 0.0 0.00 0.00 0.00 81 1020.0
20260903073533 25 196 0.0 0.0 0.00 0.00 0.00 81 1020.0
20260903073424 25 196 0.0 0.0 0.00 0.00 0.00 81 1020.0
20260903073326 25 196 0.0 0.0 0.00 0.00 0.00 81 1020.0
20260903073224 25 196 0.0 0.0 0.00 0.00 0.00 81 1019.9
20260903073126 25 196 0.0 0.0 0.00 0.00 0.00 81 1020.0
20260903073025 25 196 0.0 0.0 0.00 0.00 0.00 81 1020.0
20260903072926 25 196 0.0 0.0 0.00 0.00 0.00 81 1020.2
20260903072825 25 196 0.0 0.0 0.00 0.00 0.00 81 1020.0
20260903072724 25 196 0.0 0.0 0.00 0.00 0.00 81 1020.0
20260903072626 25 196 0.0 0.0 0.00 0.00 0.00 81 1020.0
20260903072525 25 196 0.0 0.0 0.00 0.00 0.00 81 1020.0
20260903072425 25 196 0.0 0.0 0.00 0.00 0.00 81 1020.0
20260903072325 25 196 0.0 0.0 0.00 0.00 0.00 81 1020.0
20260903072224 25 196 0.0 0.0 0.00 0.00 0.00 81 1019.9
20260903072124 25 196 0.0 0.0 0.00 0.00 0.00 81 1020.0
20260903072025 25 196 0.0 0.0 0.00 0.00 0.00 81 1020.0
20260903071925 25 196 0.0 0.0 0.00 0.00 0.00 81 1019.9
20260903071826 25 196 0.0 0.0 0.00 0.00 0.00 81 1019.9
20260903071726 25 196 0.0 0.0 0.00 0.00 0.00 81 1019.9
20260903071616 25 196 0.0 0.0 0.00 0.00 0.00 81 1019.8
20260903071517 25 196 0.0 0.0 0.00 0.00 0.00 81 1019.9
20260903071416 25 196 0.0 0.0 0.00 0.00 0.00 81 1019.9
20260903071317 25 196 0.0 0.0 0.00 0.00 0.00 81 1019.9
20260903071218 25 196 0.0 0.0 0.00 0.00 0.00 81 1019.9
20260903071117 25 196 0.0 0.0 0.00 0.00 0.00 81 1019.9
20260903071017 25 196 0.0 0.0 0.00 0.00 0.00 81 1019.9
20260903070917 25 196 0.0 0.0 0.00 0.00 0.00 81 1019.9
20260903070817 25 196 0.0 0.0 0.00 0.00 0.00 81 1019.9
20260903070718 25 196 0.0 0.0 0.00 0.00 0.00 81 1020.0
20260903070618 25 196 0.0 0.0 0.00 0.00 0.00 81 1020.0
20260903070516 25 196 0.0 0.0 0.00 0.00 0.00 81 1019.9
20260903070417 25 196 0.0 0.0 0.00 0.00 0.00 81 1020.0
20260903070317 25 196 0.0 0.0 0.00 0.00 0.00 81 1019.9
20260903070218 25 196 0.0 0.0 0.00 0.00 0.00 81 1020.0
20260903070117 25 196 0.0 0.0 0.00 0.00 0.00 81 1020.0
20260903070018 25 196 0.0 0.0 0.00 0.00 0.00 81 1020.0
20260903065917 25 196 0.0 0.0 0.00 0.00 0.00 81 1019.9
20260903065816 25 196 0.0 0.0 0.00 0.00 0.00 81 1020.0
20260903065718 25 196 0.0 0.0 0.00 0.00 0.00 81 1020.0
20260903065616 25 196 0.0 0.0 0.00 0.00 0.00 81 1020.0
20260903065518 25 196 0.0 0.0 0.00 0.00 0.00 81 1020.0
20260903065416 25 196 0.0 0.0 0.00 0.00 0.00 81 1019.9
20260903065317 25 196 0.0 0.0 0.00 0.00 0.00 81 1019.9
20260903065217 25 196 0.0 0.0 0.00 0.00 0.00 81 1020.0
20260903065117 25 196 0.0 0.0 0.00 0.00 0.00 81 1020.0
20260903065016 25 196 0.0 0.0 0.00 0.00 0.00 81 1020.0
20260903064918 25 196 0.0 0.0 0.00 0.00 0.00 81 1020.0
20260903064816 25 196 0.0 0.0 0.00 0.00 0.00 81 1020.0
20260903064717 25 196 0.0 0.0 0.00 0.00 0.00 82 1020.0
20260903064616 25 196 0.0 0.0 0.00 0.00 0.00 82 1020.0
20260903064517 25 196 0.0 0.0 0.00 0.00 0.00 82 1020.0
20260903064418 25 196 0.0 0.0 0.00 0.00 0.00 82 1020.0
20260903064312 25 196 0.0 0.0 0.00 0.00 0.00 82 1020.0
20260903064213 25 196 0.0 0.0 0.00 0.00 0.00 82 1020.2
20260903064112 25 196 0.0 0.0 0.00 0.00 0.00 82 1020.0
20260903064012 25 196 0.0 0.0 0.00 0.00 0.00 82 1020.0
20260903063913 25 196 0.0 0.0 0.00 0.00 0.00 82 1020.0
20260903063812 25 196 0.0 0.0 0.00 0.00 0.00 82 1020.0
20260903063714 25 196 0.0 0.0 0.00 0.00 0.00 82 1020.0
20260903063613 25 196 0.0 0.0 0.00 0.00 0.00 82 1020.0
20260903063513 25 196 0.0 0.0 0.00 0.00 0.00 82 1020.0
20260903063413 25 196 0.0 0.0 0.00 0.00 0.00 82 1020.0
20260903063312 25 196 0.0 0.0 0.00 0.00 0.00 82 1020.0
20260903063213 25 196 0.0 0.0 0.00 0.00 0.00 82 1020.0
20260903063113 25 196 0.0 0.0 0.00 0.00 0.00 82 1019.9
20260903063013 25 196 0.0 0.0 0.00 0.00 0.00 82 1020.0
20260903062914 25 196 0.0 0.0 0.00 0.00 0.00 82 1019.9
20260903062814 25 196 0.0 0.0 0.00 0.00 0.00 82 1020.0
20260903062712 25 196 0.0 0.0 0.00 0.00 0.00 82 1019.9
20260903062614 25 196 0.0 0.0 0.00 0.00 0.00 82 1019.9
20260903062512 25 196 0.0 0.0 0.00 0.00 0.00 82 1020.0
20260903062413 25 196 0.0 0.0 0.00 0.00 0.00 82 1019.9
20260903062314 25 196 0.0 0.0 0.00 0.00 0.00 82 1019.9
20260903062212 25 196 0.0 0.0 0.00 0.00 0.00 82 1019.9
20260903062113 25 196 0.0 0.0 0.00 0.00 0.00 82 1019.9
20260903062013 25 196 0.0 0.0 0.00 0.00 0.00 82 1020.0
20260903061912 25 196 0.0 0.0 0.00 0.00 0.00 82 1020.0
20260903061814 25 196 0.0 0.0 0.00 0.00 0.00 82 1020.0
20260903061712 25 196 0.0 0.0 0.00 0.00 0.00 82 1020.0
20260903061614 25 196 0.0 0.0 0.00 0.00 0.00 82 1020.2
20260903061512 25 196 0.0 0.0 0.00 0.00 0.00 82 1020.0
20260903061413 25 196 0.0 0.0 0.00 0.00 0.00 82 1020.0
20260903061312 25 196 0.0 0.0 0.00 0.00 0.00 82 1019.9
20260903061213 25 196 0.0 0.0 0.00 0.00 0.00 82 1020.0
20260903061114 25 196 0.0 0.0 0.00 0.00 0.00 82 1019.9
20260903061008 25 196 0.0 0.0 0.00 0.00 0.00 82 1019.9
20260903060909 25 196 0.0 0.0 0.00 0.00 0.00 81 1020.0
20260903060809 25 196 0.0 0.0 0.00 0.00 0.00 81 1019.9
20260903060708 25 196 0.0 0.0 0.00 0.00 0.00 81 1019.9
20260903060608 25 196 0.0 0.0 0.00 0.00 0.00 81 1019.8
20260903060508 25 196 0.0 0.0 0.00 0.00 0.00 81 1019.9
20260903060409 25 198 0.0 0.0 0.00 0.00 0.00 81 1019.9
20260903060309 25 198 0.0 0.0 0.00 0.00 0.00 81 1019.9
20260903060208 25 198 0.0 0.0 0.00 0.00 0.00 81 1019.9
20260903060110 25 198 0.0 0.0 0.00 0.00 0.00 81 1019.9
20260903060010 25 198 0.0 0.0 0.00 0.00 0.00 81 1019.9
20260903055908 25 198 0.0 0.0 0.00 0.00 0.00 81 1019.9
20260903055808 25 198 0.0 0.0 0.00 0.00 0.00 80 1019.9
20260903055710 25 198 0.0 0.0 0.00 0.00 0.00 80 1019.9
20260903055609 25 198 0.0 0.0 0.00 0.00 0.00 80 1019.9
20260903055508 25 198 0.0 0.0 0.00 0.00 0.00 80 1019.9
20260903055408 25 198 0.0 0.0 0.00 0.00 0.00 80 1019.9
20260903055309 25 198 0.0 0.0 0.00 0.00 0.00 80 1019.9
20260903055208 25 198 0.0 0.0 0.00 0.00 0.00 80 1019.9
20260903055105 25 198 0.0 0.0 0.00 0.00 0.00 79 1019.9
20260903055005 25 198 0.0 0.0 0.00 0.00 0.00 79 1019.9
20260903054902 25 198 0.0 0.0 0.00 0.00 0.00 79 1019.9
20260903054803 25 198 0.0 0.0 0.00 0.00 0.00 79 1019.9
20260903054703 25 198 0.0 0.0 0.00 0.00 0.00 79 1019.9
20260903054557 25 198 0.0 0.0 0.00 0.00 0.00 79 1019.9
20260903054454 25 198 0.0 0.0 0.00 0.00 0.00 79 1019.8
20260903054354 25 198 0.0 0.0 0.00 0.00 0.00 79 1019.9
20260903054253 25 198 0.0 0.0 0.00 0.00 0.00 78 1019.8
20260903054152 25 198 0.0 0.0 0.00 0.00 0.00 78 1019.8
20260903054054 25 198 0.0 0.0 0.00 0.00 0.00 78 1019.8
20260903053950 25 198 0.0 0.0 0.00 0.00 0.00 78 1019.8
20260903053852 25 198 0.0 0.0 0.00 0.00 0.00 78 1019.8
20260903053749 25 198 0.0 0.0 0.00 0.00 0.00 78 1019.9
20260903053647 25 198 0.0 0.0 0.00 0.00 0.00 78 1019.9
20260903053541 25 198 0.0 0.0 0.00 0.00 0.00 78 1019.9
20260903053440 25 198 0.0 0.0 0.00 0.00 0.00 78 1020.0
20260903053341 25 198 0.0 0.0 0.00 0.00 0.00 78 1020.0
20260903053242 25 198 0.0 0.0 0.00 0.00 0.00 78 1020.0
20260903053141 25 198 0.0 0.0 0.00 0.00 0.00 78 1019.9
20260903053036 25 198 0.0 0.0 0.00 0.00 0.00 78 1020.0
20260903052935 25 198 0.0 0.0 0.00 0.00 0.00 78 1020.0
20260903052835 25 198 0.0 0.0 0.00 0.00 0.00 78 1020.0
20260903052734 25 198 0.0 0.0 0.00 0.00 0.00 78 1020.2
20260903052631 25 198 0.0 0.0 0.00 0.00 0.00 78 1020.0
20260903052529 25 198 0.0 0.0 0.00 0.00 0.00 78 1020.0
20260903052428 25 198 0.0 0.0 0.00 0.00 0.00 78 1020.0
20260903052329 25 198 0.0 0.0 0.00 0.00 0.00 78 1020.0
20260903052228 25 198 0.0 0.0 0.00 0.00 0.00 78 1020.2
20260903052125 25 198 0.0 0.0 0.00 0.00 0.00 78 1020.2
20260903052025 25 198 0.0 0.0 0.00 0.00 0.00 78 1020.0
20260903051924 25 198 0.0 0.0 0.00 0.00 0.00 78 1020.0
20260903051823 25 198 0.0 0.0 0.00 0.00 0.00 78 1020.2
20260903051722 25 198 0.0 0.0 0.00 0.00 0.00 78 1020.3
20260903051619 25 198 0.0 0.0 0.00 0.00 0.00 79 1020.0
20260903051516 25 198 0.0 0.0 0.00 0.00 0.00 79 1020.0
20260903051413 25 198 0.0 0.0 0.00 0.00 0.00 79 1020.3
20260903051313 25 198 0.0 0.0 0.00 0.00 0.00 79 1020.2
20260903051212 25 198 0.0 0.0 0.00 0.00 0.00 79 1020.2
20260903051112 25 198 0.0 0.0 0.00 0.00 0.00 79 1020.2
20260903051012 25 198 0.0 0.0 0.00 0.00 0.00 79 1020.3
20260903050912 25 198 0.0 0.0 0.00 0.00 0.00 79 1020.3
20260903050811 25 198 0.0 0.0 0.00 0.00 0.00 79 1020.4
20260903050709 25 198 0.0 0.0 0.00 0.00 0.00 79 1020.3
20260903050609 25 198 0.0 0.0 0.00 0.00 0.00 79 1020.3
20260903050506 25 198 0.0 0.0 0.00 0.00 0.00 79 1020.3
20260903050406 25 198 0.0 0.0 0.00 0.00 0.00 79 1020.3
20260903050304 25 198 0.0 0.0 0.00 0.00 0.00 79 1020.3
20260903050205 25 198 0.0 0.0 0.00 0.00 0.00 79 1020.3
20260903050104 25 198 0.0 0.0 0.00 0.00 0.00 79 1020.4
20260903050006 25 198 0.0 0.0 0.00 0.00 0.00 79 1020.4
20260903045902 25 198 0.0 0.0 0.00 0.00 0.00 79 1020.4
20260903045803 25 198 0.0 0.0 0.00 0.00 0.00 79 1020.5
20260903045701 25 198 0.0 0.0 0.00 0.00 0.00 79 1020.4
20260903045600 25 198 0.0 0.0 0.00 0.00 0.00 79 1020.5
20260903045501 25 198 0.0 0.0 0.00 0.00 0.00 79 1020.5
20260903045400 26 198 0.0 0.0 0.00 0.00 0.00 79 1020.5
20260903045258 26 198 0.0 0.0 0.00 0.00 0.00 78 1020.4
20260903045158 26 198 0.0 0.0 0.00 0.00 0.00 78 1020.4
20260903045100 26 198 0.0 0.0 0.00 0.00 0.00 78 1020.5
20260903044957 26 198 0.0 0.0 0.00 0.00 0.00 78 1020.4
20260903044854 26 198 0.0 0.0 0.00 0.00 0.00 78 1020.4
20260903044755 26 198 0.0 0.0 0.00 0.00 0.00 78 1020.4
20260903044652 26 198 0.0 0.0 0.00 0.00 0.00 78 1020.3
20260903044553 26 198 0.0 0.0 0.00 0.00 0.00 78 1020.4
20260903044452 26 198 0.0 0.0 0.00 0.00 0.00 78 1020.4
20260903044349 26 198 0.0 0.0 0.00 0.00 0.00 78 1020.4
20260903044245 26 198 0.0 0.0 0.00 0.00 0.00 78 1020.4
20260903044142 26 198 0.0 0.0 0.00 0.00 0.00 78 1020.4
20260903044043 26 198 0.0 0.0 0.00 0.00 0.00 78 1020.4
20260903043941 26 198 0.0 0.0 0.00 0.00 0.00 78 1020.4
20260903043839 26 198 0.0 0.0 0.00 0.00 0.00 78 1020.4
20260903043739 26 198 0.0 0.0 0.00 0.00 0.00 78 1020.4
20260903043636 26 198 0.0 0.0 0.00 0.00 0.00 78 1020.4
20260903043537 26 198 0.0 0.0 0.00 0.00 0.00 78 1020.4
20260903043436 26 198 0.0 0.0 0.00 0.00 0.00 78 1020.5
20260903043333 26 198 0.0 0.0 0.00 0.00 0.00 78 1020.5
20260903043232 26 198 0.0 0.0 0.00 0.00 0.00 78 1020.5
20260903043131 26 198 0.0 0.0 0.00 0.00 0.00 78 1020.6
20260903043031 26 198 0.0 0.0 0.00 0.00 0.00 78 1020.5
20260903042929 26 198 0.0 0.0 0.00 0.00 0.00 78 1020.5
20260903042827 26 198 0.0 0.0 0.00 0.00 0.00 78 1020.5
20260903042720 26 198 0.0 0.0 0.00 0.00 0.00 78 1020.5
20260903042621 26 198 0.0 0.0 0.00 0.00 0.00 78 1020.5
20260903042521 26 198 0.0 0.0 0.00 0.00 0.00 78 1020.5
20260903042419 26 198 0.0 0.0 0.00 0.00 0.00 78 1020.5
20260903042316 26 198 0.0 0.0 0.00 0.00 0.00 78 1020.5
20260903042218 26 198 0.0 0.0 0.00 0.00 0.00 78 1020.5
20260903042114 26 198 0.0 0.0 0.00 0.00 0.00 78 1020.5
20260903042015 26 198 0.0 0.0 0.00 0.00 0.00 78 1020.5
20260903041914 26 198 0.0 0.0 0.00 0.00 0.00 78 1020.5
20260903041811 26 198 0.0 0.0 0.00 0.00 0.00 78 1020.5
20260903041705 26 198 0.0 0.0 0.00 0.00 0.00 78 1020.5
20260903041604 26 198 0.0 0.0 0.00 0.00 0.00 78 1020.6
20260903041506 26 198 0.0 0.0 0.00 0.00 0.00 78 1020.5
20260903041406 26 197 0.0 0.0 0.00 0.00 0.00 77 1020.5
20260903041304 26 197 0.0 0.0 0.00 0.00 0.00 77 1020.6
20260903041201 26 197 0.0 0.0 0.00 0.00 0.00 77 1020.6
20260903041101 26 196 0.0 0.0 0.00 0.00 0.00 77 1020.6
20260903041000 26 196 0.0 0.0 0.00 0.00 0.00 77 1020.6
20260903040900 26 196 0.0 0.0 0.00 0.00 0.00 77 1020.6
20260903040802 26 196 0.0 0.0 0.00 0.00 0.00 77 1020.7
20260903040701 26 196 0.0 0.0 0.00 0.00 0.00 77 1020.6
20260903040602 26 196 0.0 0.0 0.00 0.00 0.00 77 1020.6
20260903040500 26 196 0.0 0.0 0.00 0.00 0.00 77 1020.6
20260903040401 26 196 0.0 0.0 0.00 0.00 0.00 77 1020.6
20260903040301 26 196 0.0 0.0 0.00 0.00 0.00 77 1020.6
20260903040200 26 195 0.0 0.0 0.00 0.00 0.00 77 1020.6
20260903040058 26 195 0.0 0.0 0.00 0.00 0.00 77 1020.6
20260903040000 26 194 0.0 0.0 0.00 0.00 0.00 77 1020.6
20260903035858 26 194 0.0 0.0 0.00 0.00 0.00 77 1020.5
20260903035759 26 194 0.0 0.0 0.00 0.00 0.00 77 1020.5
20260903035658 26 193 0.0 0.0 0.00 0.00 0.00 77 1020.6
20260903035559 26 192 0.0 0.0 0.00 0.00 0.00 77 1020.6
20260903035459 26 191 0.0 0.0 0.00 0.00 0.00 77 1020.6
20260903035358 26 191 0.0 0.0 0.00 0.00 0.00 77 1020.6
20260903035258 26 191 0.0 0.0 0.00 0.00 0.00 76 1020.5
20260903035200 26 191 0.0 0.0 0.00 0.00 0.00 77 1020.6
20260903035058 26 191 0.0 0.0 0.00 0.00 0.00 77 1020.6
20260903035000 26 191 0.0 0.0 0.00 0.00 0.00 77 1020.6
20260903034858 26 190 0.0 0.0 0.00 0.00 0.00 77 1020.6
20260903034800 26 190 0.0 0.0 0.00 0.00 0.00 76 1020.7
20260903034658 26 190 0.0 0.0 0.00 0.00 0.00 76 1020.6
20260903034559 26 189 0.0 0.0 0.00 0.00 0.00 76 1020.8
20260903034458 26 189 0.0 0.0 0.00 0.00 0.00 76 1020.8
20260903034358 26 189 0.0 0.0 0.00 0.00 0.00 76 1020.7
20260903034300 26 188 0.0 0.0 0.00 0.00 0.00 76 1020.7
20260903034200 26 188 0.0 0.0 0.00 0.00 0.00 76 1020.7
20260903034059 26 188 0.0 0.0 0.00 0.00 0.00 76 1020.8
20260903033958 26 188 0.0 0.0 0.00 0.00 0.00 76 1020.8
20260903033900 26 188 0.0 0.0 0.00 0.00 0.00 76 1020.8
20260903033800 26 186 0.0 0.0 0.00 0.00 0.00 76 1020.8
20260903033659 26 186 0.0 0.0 0.00 0.00 0.00 76 1020.8
20260903033558 27 186 0.0 0.0 0.00 0.00 0.00 75 1020.8
20260903033500 27 186 0.0 0.0 0.00 0.00 0.00 75 1020.8
20260903033354 27 187 0.0 0.0 0.00 0.00 0.00 75 1020.8
20260903033255 27 187 0.0 0.0 0.00 0.00 0.00 75 1020.8
20260903033155 27 184 0.0 0.0 0.00 0.00 0.00 75 1020.9
20260903033055 27 184 0.0 0.0 0.00 0.00 0.00 75 1020.9
20260903032956 27 184 0.0 0.0 0.00 0.00 0.00 75 1020.8
20260903032854 27 185 0.0 0.0 0.00 0.00 0.00 75 1020.9
20260903032754 27 187 0.0 0.0 0.00 0.00 0.00 75 1020.9
20260903032656 27 186 0.0 0.0 0.00 0.00 0.00 75 1020.9
20260903032554 27 188 0.0 0.0 0.00 0.00 0.00 74 1020.9
20260903032455 27 188 0.0 0.0 0.00 0.00 0.00 74 1020.9
20260903032355 27 188 0.0 0.0 0.00 0.00 0.00 74 1021.0
20260903032256 27 188 0.0 0.0 0.00 0.00 0.00 74 1021.0
20260903032156 27 188 0.0 0.0 0.00 0.00 0.00 74 1021.0
20260903032055 27 188 0.0 0.0 0.00 0.00 0.00 74 1021.0
20260903031956 27 185 0.0 0.0 0.00 0.00 0.00 74 1021.1
20260903031854 27 185 0.0 0.0 0.00 0.00 0.00 74 1020.9
20260903031755 27 183 0.0 0.0 0.00 0.00 0.00 73 1021.1
20260903031655 27 184 0.0 0.0 0.00 0.00 0.00 73 1021.1
20260903031554 27 182 0.0 0.0 0.00 0.00 0.00 73 1021.0
20260903031455 27 186 0.0 0.0 0.00 0.00 0.00 73 1021.0
20260903031355 27 188 0.0 0.0 0.00 0.00 0.00 73 1021.0
20260903031252 27 188 0.0 0.0 0.00 0.00 0.00 73 1021.0
20260903031149 27 189 0.0 0.0 0.00 0.00 0.00 73 1021.0
20260903031046 27 189 0.0 0.0 0.00 0.00 0.00 73 1021.0
20260903030940 27 190 0.0 0.0 0.00 0.00 0.00 73 1021.1
20260903030841 27 190 0.0 0.0 0.00 0.00 0.00 73 1021.0
20260903030738 27 191 0.0 0.0 0.00 0.00 0.00 73 1021.1
20260903030639 27 192 0.0 0.0 0.00 0.00 0.00 73 1021.1
20260903030536 27 193 0.0 0.0 0.00 0.00 0.00 73 1021.1
20260903030437 27 194 0.0 0.0 0.00 0.00 0.00 73 1021.1
20260903030335 27 194 0.0 0.0 0.00 0.00 0.00 73 1021.1
20260903030235 27 194 0.0 0.0 0.00 0.00 0.00 72 1021.2
20260903030134 27 194 0.0 0.0 0.00 0.00 0.00 72 1021.1
20260903030030 27 195 0.0 0.0 0.00 0.00 0.00 73 1021.3
20260903025928 27 195 0.0 0.0 0.00 0.00 0.00 72 1021.2
20260903025830 27 195 0.0 0.0 0.00 0.00 0.00 72 1021.2
20260903025728 27 194 0.0 0.0 0.00 0.00 0.00 72 1021.2
20260903025628 27 194 0.0 0.0 0.00 0.00 0.00 72 1021.3
20260903025525 27 194 0.0 0.0 0.00 0.00 0.00 72 1021.2
20260903025419 27 194 0.0 0.0 0.00 0.00 0.00 72 1021.2
20260903025320 27 194 0.0 0.0 0.00 0.00 0.00 72 1021.2
20260903025218 27 194 0.0 0.0 0.00 0.00 0.00 72 1021.2
20260903025118 27 193 0.0 0.0 0.00 0.00 0.00 72 1021.3
20260903025014 27 193 0.0 0.0 0.00 0.00 0.00 72 1021.3
20260903024914 27 192 0.0 0.0 0.00 0.00 0.00 72 1021.2
20260903024813 27 192 0.0 0.0 0.00 0.00 0.00 72 1021.2
20260903024712 28 192 0.0 0.0 0.00 0.00 0.00 72 1021.3
20260903024612 28 192 0.0 0.0 0.00 0.00 0.00 72 1021.3
20260903024509 28 192 0.0 0.0 0.00 0.00 0.00 72 1021.3
20260903024403 28 191 0.0 0.0 0.00 0.00 0.00 72 1021.3
20260903024302 28 191 0.0 0.0 0.00 0.00 0.00 72 1021.3
20260903024204 28 190 0.0 0.0 0.00 0.00 0.00 72 1021.4
20260903024102 28 190 0.0 0.0 0.00 0.00 0.00 72 1021.4
20260903024002 28 190 0.0 0.0 0.00 0.00 0.00 71 1021.4
20260903023857 28 190 0.0 0.0 0.00 0.00 0.00 71 1021.4
20260903023757 28 190 0.0 0.0 0.00 0.00 0.00 71 1021.4
20260903023658 28 190 0.0 0.0 0.00 0.00 0.00 71 1021.3
20260903023555 28 189 0.0 0.0 0.00 0.00 0.00 71 1021.4
20260903023453 28 189 0.0 0.0 0.00 0.00 0.00 71 1021.4
20260903023352 28 189 0.0 0.0 0.00 0.00 0.00 71 1021.3
20260903023251 28 188 0.0 0.0 0.00 0.00 0.00 71 1021.4
20260903023150 28 188 0.0 0.0 0.00 0.00 0.00 71 1021.5
20260903023049 28 188 0.0 0.0 0.00 0.00 0.00 71 1021.4
20260903022947 28 188 0.0 0.0 0.00 0.00 0.00 71 1021.3
20260903022846 28 188 0.0 0.0 0.00 0.00 0.00 71 1021.4
20260903022745 28 189 0.0 0.0 0.00 0.00 0.00 71 1021.4
20260903022642 28 188 0.0 0.0 0.00 0.00 0.00 71 1021.4
20260903022544 28 188 0.0 0.0 0.00 0.00 0.00 71 1021.3
20260903022440 28 189 0.0 0.0 0.00 0.00 0.00 71 1021.4
20260903022334 28 188 0.0 0.0 0.00 0.00 0.00 71 1021.3
20260903022234 28 190 0.0 0.0 0.00 0.00 0.00 71 1021.3
20260903022135 28 190 0.0 0.0 0.00 0.00 0.00 71 1021.3
20260903022032 28 191 0.0 0.0 0.00 0.00 0.00 71 1021.3
20260903021931 28 192 0.0 0.0 0.00 0.00 0.00 71 1021.3
20260903021824 28 196 0.0 0.0 0.00 0.00 0.00 71 1021.4
20260903021724 28 197 0.0 0.0 0.00 0.00 0.00 71 1021.4
20260903021626 28 196 0.0 0.0 0.00 0.00 0.00 71 1021.4
20260903021524 28 198 0.0 0.0 0.00 0.00 0.00 71 1021.4
20260903021425 28 200 0.0 0.0 0.00 0.00 0.00 71 1021.5
20260903021318 28 200 0.0 0.0 0.00 0.00 0.00 71 1021.5
20260903021219 28 200 0.0 0.0 0.00 0.00 0.00 71 1021.5
20260903021119 28 202 0.0 0.0 0.00 0.00 0.00 71 1021.5
20260903021019 28 202 0.0 0.0 0.00 0.00 0.00 71 1021.5
20260903020918 28 206 0.0 0.0 0.00 0.00 0.00 71 1021.5
20260903020812 28 209 0.0 0.0 0.00 0.00 0.00 71 1021.5
20260903020709 28 211 0.0 0.0 0.00 0.00 0.00 71 1021.5
20260903020609 27 212 0.0 0.0 0.00 0.00 0.00 71 1021.5
20260903020509 27 217 0.0 0.0 0.00 0.00 0.00 72 1021.4
20260903020408 27 217 0.0 0.0 0.00 0.00 0.00 71 1021.5
20260903020304 27 218 0.0 0.0 0.00 0.00 0.00 72 1021.6
20260903020202 27 219 0.0 0.0 0.00 0.00 0.00 72 1021.6
20260903020003 27 219 0.0 0.0 0.00 0.00 0.00 72 1021.5
20260903015903 27 219 0.0 0.0 0.00 0.00 0.00 72 1021.5
20260903015802 27 220 0.0 0.0 0.00 0.00 0.00 72 1021.4
20260903015700 27 220 0.0 0.0 0.00 0.00 0.00 72 1021.5
20260903015600 27 219 0.0 0.0 0.00 0.00 0.00 72 1021.5
20260903015459 27 220 0.0 0.0 0.00 0.00 0.00 72 1021.5
20260903015356 27 220 0.0 0.0 0.00 0.00 0.00 72 1021.4
20260903015251 27 220 0.0 0.0 0.00 0.00 0.00 72 1021.5
20260903015150 27 221 0.0 0.0 0.00 0.00 0.00 72 1021.5
20260903015051 27 221 0.0 0.0 0.00 0.00 0.00 72 1021.4
20260903014949 27 220 0.0 0.0 0.00 0.00 0.00 72 1021.5
20260903014847 27 220 0.0 0.0 0.00 0.00 0.00 73 1021.5
20260903014746 27 221 0.0 0.0 0.00 0.00 0.00 73 1021.4
20260903014645 27 220 0.0 0.0 0.00 0.00 0.00 73 1021.5
20260903014545 27 221 0.0 0.0 0.00 0.00 0.00 73 1021.4
20260903014443 27 221 0.0 0.0 0.00 0.00 0.00 73 1021.4
20260903014341 27 221 0.0 0.0 0.00 0.00 0.00 73 1021.4
20260903014236 27 221 0.0 0.0 0.00 0.00 0.00 73 1021.4
20260903014134 27 221 0.0 0.0 0.00 0.00 0.00 73 1021.5
20260903014035 27 221 0.0 0.0 0.00 0.00 0.00 73 1021.4
20260903013934 27 222 0.0 0.0 0.00 0.00 0.00 73 1021.3
20260903013835 27 222 0.0 0.0 0.00 0.00 0.00 73 1021.3
20260903013730 27 222 0.0 0.0 0.00 0.00 0.00 73 1021.4
20260903013629 27 222 0.0 0.0 0.00 0.00 0.00 73 1021.4
20260903013530 27 222 0.0 0.0 0.00 0.00 0.00 73 1021.4
20260903013426 27 222 0.0 0.0 0.00 0.00 0.00 73 1021.4
20260903013325 27 222 0.0 0.0 0.00 0.00 0.00 73 1021.4
20260903013226 27 222 0.0 0.0 0.00 0.00 0.00 73 1021.4
20260903013122 27 222 0.0 0.0 0.00 0.00 0.00 73 1021.3
20260903013023 27 222 0.0 0.0 0.00 0.00 0.00 73 1021.3
20260903012921 27 222 0.0 0.0 0.00 0.00 0.00 74 1021.3
20260903012819 27 222 0.0 0.0 0.00 0.00 0.00 73 1021.2
20260903012719 27 222 0.0 0.0 0.00 0.00 0.00 74 1021.2
20260903012617 27 222 0.0 0.0 0.00 0.00 0.00 74 1021.2
20260903012517 27 222 0.0 0.0 0.00 0.00 0.00 74 1021.2
20260903012416 27 222 0.0 0.0 0.00 0.00 0.00 74 1021.2
20260903012313 27 222 0.0 0.0 0.00 0.00 0.00 74 1021.2
20260903012205 27 222 0.0 0.0 0.00 0.00 0.00 74 1021.2
20260903012107 27 222 0.0 0.0 0.00 0.00 0.00 74 1021.2
20260903012004 27 222 0.0 0.0 0.00 0.00 0.00 74 1021.2
20260903011903 27 222 0.0 0.0 0.00 0.00 0.00 74 1021.1
20260903011803 27 222 0.0 0.0 0.00 0.00 0.00 74 1021.1
20260903011658 27 222 0.0 0.0 0.00 0.00 0.00 74 1021.1
20260903011558 27 222 0.0 0.0 0.00 0.00 0.00 74 1021.1
20260903011456 27 222 0.0 0.0 0.00 0.00 0.00 74 1021.1
20260903011356 27 222 0.0 0.0 0.00 0.00 0.00 74 1021.2
20260903011257 27 222 0.0 0.0 0.00 0.00 0.00 74 1021.1
20260903011156 27 222 0.0 0.0 0.00 0.00 0.00 74 1021.1
20260903011054 27 222 0.0 0.0 0.00 0.00 0.00 74 1021.1
20260903010954 27 222 0.0 0.0 0.00 0.00 0.00 74 1021.1
20260903010853 27 222 0.0 0.0 0.00 0.00 0.00 73 1021.1
20260903010750 27 222 0.0 0.0 0.00 0.00 0.00 74 1021.1
20260903010643 27 222 0.0 0.0 0.00 0.00 0.00 74 1021.1
20260903010542 27 222 0.0 0.0 0.00 0.00 0.00 74 1021.1
20260903010440 27 222 0.0 0.0 0.00 0.00 0.00 73 1021.0
20260903010341 27 221 0.0 0.0 0.00 0.00 0.00 73 1021.0
20260903010241 27 222 0.0 0.0 0.00 0.00 0.00 74 1021.1
20260903010141 27 222 0.0 0.0 0.00 0.00 0.00 73 1021.0
20260903010038 27 222 0.0 0.0 0.00 0.00 0.00 73 1021.0
20260903005939 27 222 0.0 0.0 0.00 0.00 0.00 73 1021.0
20260903005838 27 222 0.0 0.0 0.00 0.00 0.00 74 1021.0
20260903005735 27 222 0.0 0.0 0.00 0.00 0.00 73 1020.8
20260903005632 27 222 0.0 0.0 0.00 0.00 0.00 73 1020.9
20260903005532 27 223 0.0 0.0 0.00 0.00 0.00 74 1020.9
20260903005432 27 223 0.0 0.0 0.00 0.00 0.00 74 1020.8
20260903005330 27 226 0.0 0.0 0.00 0.00 0.00 74 1020.8
20260903005229 27 227 0.0 0.0 0.00 0.00 0.00 74 1020.8
20260903005120 27 227 0.0 0.0 0.00 0.00 0.00 73 1020.9
20260903005020 27 227 0.0 0.0 0.00 0.00 0.00 74 1020.9
20260903004922 27 227 0.0 0.0 0.00 0.00 0.00 74 1020.8
20260903004821 27 227 0.0 0.0 0.00 0.00 0.00 73 1021.0
20260903004718 27 227 0.0 0.0 0.00 0.00 0.00 74 1020.8
20260903004620 27 227 0.0 0.0 0.00 0.00 0.00 74 1020.9
20260903004518 27 227 0.0 0.0 0.00 0.00 0.00 74 1020.9
20260903004416 27 227 0.0 0.0 0.00 0.00 0.00 73 1021.0
20260903004315 27 227 0.0 0.0 0.00 0.00 0.00 73 1020.9
20260903004212 27 227 0.0 0.0 0.00 0.00 0.00 73 1021.0
20260903004107 27 227 0.0 0.0 0.00 0.00 0.00 73 1020.9
20260903004006 27 227 0.0 0.0 0.00 0.00 0.00 73 1020.9
20260903003907 27 227 0.0 0.0 0.00 0.00 0.00 73 1020.8
20260903003805 27 227 0.0 0.0 0.00 0.00 0.00 73 1020.8
20260903003707 27 227 0.0 0.0 0.00 0.00 0.00 73 1020.8
20260903003602 27 227 0.0 0.0 0.00 0.00 0.00 73 1020.9
20260903003501 27 227 0.0 0.0 0.00 0.00 0.00 73 1020.9
20260903003359 27 227 0.0 0.0 0.00 0.00 0.00 73 1020.9
20260903003258 27 227 0.0 0.0 0.00 0.00 0.00 73 1020.9
20260903003157 27 227 0.0 0.0 0.00 0.00 0.00 73 1020.9
20260903003057 27 227 0.0 0.0 0.00 0.00 0.00 73 1020.9
20260903002954 27 227 0.0 0.0 0.00 0.00 0.00 73 1020.8
20260903002855 27 227 0.0 0.0 0.00 0.00 0.00 73 1020.9
20260903002752 27 227 0.0 0.0 0.00 0.00 0.00 72 1020.9
20260903002651 27 227 0.0 0.0 0.00 0.00 0.00 72 1020.8
20260903002550 27 227 0.0 0.0 0.00 0.00 0.00 72 1020.9
20260903002450 27 227 0.0 0.0 0.00 0.00 0.00 72 1020.8
20260903002349 27 227 0.0 0.0 0.00 0.00 0.00 72 1020.8
20260903002248 27 227 0.0 0.0 0.00 0.00 0.00 72 1020.9
20260903002145 27 227 0.0 0.0 0.00 0.00 0.00 73 1021.0
20260903002037 27 227 0.0 0.0 0.00 0.00 0.00 73 1020.9
20260903001935 27 227 0.0 0.0 0.00 0.00 0.00 73 1020.9
20260903001834 27 227 0.0 0.0 0.00 0.00 0.00 72 1020.8
20260903001735 27 227 0.0 0.0 0.00 0.00 0.00 72 1020.8
20260903001636 27 227 0.0 0.0 0.00 0.00 0.00 73 1020.8
20260903001535 27 227 0.0 0.0 0.00 0.00 0.00 73 1020.8
20260903001433 27 227 0.0 0.0 0.00 0.00 0.00 72 1020.8
20260903001333 27 227 0.0 0.0 0.00 0.00 0.00 72 1020.7
20260903001231 27 227 0.0 0.0 0.00 0.00 0.00 73 1020.7
20260903001129 27 227 0.0 0.0 0.00 0.00 0.00 72 1020.7
20260903001027 28 227 0.0 0.0 0.00 0.00 0.00 73 1020.8
20260903000927 28 227 0.0 0.0 0.00 0.00 0.00 72 1020.8
20260903000826 28 227 0.0 0.0 0.00 0.00 0.00 72 1020.7
20260903000725 28 227 0.0 0.0 0.00 0.00 0.00 72 1020.7
20260903000623 28 227 0.0 0.0 0.00 0.00 0.00 72 1020.7
20260903000518 28 227 0.0 0.0 0.00 0.00 0.00 72 1020.7
20260903000417 28 227 0.0 0.0 0.00 0.00 0.00 73 1020.7
20260903000318 28 227 0.0 0.0 0.00 0.00 0.00 72 1020.7
20260903000215 28 227 0.0 0.0 0.00 0.00 0.00 72 1020.7
20260903000113 28 227 0.0 0.0 0.00 0.00 0.00 72 1020.6
20260903000014 28 227 0.0 0.0 0.00 0.00 0.00 72 1020.6
20260902235910 28 227 0.0 0.0 0.00 0.00 0.00 72 1020.6
20260902235810 28 227 0.0 0.0 0.00 0.00 0.00 72 1020.6
20260902235709 28 227 0.0 0.0 0.00 0.00 0.00 72 1020.6
20260902235607 28 227 0.0 0.0 0.00 0.00 0.00 72 1020.5
20260902235504 28 227 0.0 0.0 0.00 0.00 0.00 72 1020.5
20260902235403 28 227 0.0 0.0 0.00 0.00 0.00 72 1020.6
20260902235306 28 227 0.0 0.0 0.00 0.00 0.00 71 1020.4
20260902235203 28 227 0.0 0.0 0.00 0.00 0.00 71 1020.4
20260902235101 28 227 0.0 0.0 0.00 0.00 0.00 71 1020.4
20260902234955 28 227 0.0 0.0 0.00 0.00 0.00 71 1020.4
20260902234855 28 227 0.0 0.0 0.00 0.00 0.00 72 1020.4
20260902234754 28 227 0.0 0.0 0.00 0.00 0.00 72 1020.4
20260902234653 28 227 0.0 0.0 0.00 0.00 0.00 72 1020.3
20260902234551 28 227 0.0 0.0 0.00 0.00 0.00 72 1020.4
20260902234446 28 227 0.0 0.0 0.00 0.00 0.00 72 1020.4
20260902234343 28 227 0.0 0.0 0.00 0.00 0.00 71 1020.3
20260902234244 28 227 0.0 0.0 0.00 0.00 0.00 71 1020.4
20260902234144 28 227 0.0 0.0 0.00 0.00 0.00 72 1020.4
20260902234044 28 227 0.0 0.0 0.00 0.00 0.00 72 1020.4
20260902233944 28 227 0.0 0.0 0.00 0.00 0.00 71 1020.4
20260902233843 28 227 0.0 0.0 0.00 0.00 0.00 72 1020.5
20260902233740 28 227 0.0 0.0 0.00 0.00 0.00 72 1020.4
20260902233641 28 227 0.0 0.0 0.00 0.00 0.00 72 1020.5
20260902233539 28 227 0.0 0.0 0.00 0.00 0.00 72 1020.5
20260902233433 28 227 0.0 0.0 0.00 0.00 0.00 72 1020.5
20260902233333 28 227 0.0 0.0 0.00 0.00 0.00 72 1020.5
20260902233234 28 227 0.0 0.0 0.00 0.00 0.00 72 1020.6
20260902233129 28 227 0.0 0.0 0.00 0.00 0.00 71 1020.6
20260902233029 28 227 0.0 0.0 0.00 0.00 0.00 71 1020.6
20260902232926 28 260 0.0 0.0 0.00 0.00 0.00 71 1020.5
20260902232827 28 272 0.0 0.0 0.00 0.00 0.00 71 1020.5
20260902232727 28 279 0.0 0.0 0.00 0.00 0.00 71 1020.5
20260902232623 28 236 0.0 0.0 0.00 0.00 0.00 71 1020.5
20260902232522 28 138 0.0 0.0 0.00 0.00 0.00 71 1020.5
20260902232422 29 138 0.0 0.0 0.00 0.00 0.00 71 1020.5
20260902232321 29 138 0.0 0.0 0.00 0.00 0.00 71 1020.6
20260902232220 29 135 0.0 0.0 0.00 0.00 0.00 72 1020.4
20260902232119 29 134 0.0 0.0 0.00 0.00 0.00 72 1020.5
20260902232017 29 134 0.0 0.0 0.00 0.00 0.00 72 1020.4
20260902231907 29 134 0.0 0.0 0.00 0.00 0.00 72 1020.5
20260902231806 29 134 0.0 0.0 0.00 0.00 0.00 71 1020.4
20260902231707 29 134 0.0 0.0 0.00 0.00 0.00 70 1020.4
20260902231607 29 134 0.0 0.0 0.00 0.00 0.00 70 1020.4
20260902231507 29 134 0.0 0.0 0.00 0.00 0.00 70 1020.5
20260902231402 29 134 0.0 0.0 0.00 0.00 0.00 70 1020.5